Time,TemperatureF,DewpointF,PressureIn,WindDirection,WindDirectionDegrees,WindSpeedMPH,WindSpeedGustMPH,Humidity,HourlyPrecipIn,Conditions,Clouds,dailyrainin,SoftwareType,DateUTC
2013-07-16 00:04:00,76.1,76.1,30.11,North,359,0.0,25.4,100,0.01,,SKC,0.01,VWS V14.01,2013-07-16 04:04:00,
2013-07-16 00:05:00,76.1,76.1,30.11,North,359,0.0,25.4,100,0.01,,SKC,0.01,VWS V14.01,2013-07-16 04:05:00,
2013-07-16 00:09:00,76.1,76.1,30.11,North,359,0.0,25.4,100,0.01,,SKC,0.01,VWS V14.01,2013-07-16 04:09:00,
2013-07-16 00:10:00,76.1,76.1,30.11,North,359,0.0,25.4,100,0.01,,SKC,0.01,VWS V14.01,2013-07-16 04:10:00,
2013-07-16 00:11:00,76.1,76.1,30.11,North,359,0.0,25.4,100,0.01,,SKC,0.01,VWS V14.01,2013-07-16 04:11:00,
2013-07-16 00:14:00,76.1,76.1,30.11,North,359,0.0,25.4,100,0.01,,SKC,0.01,VWS V14.01,2013-07-16 04:14:00,
2013-07-16 00:15:00,76.2,76.2,30.11,North,359,0.0,25.4,100,0.01,,SKC,0.01,VWS V14.01,2013-07-16 04:15:00,
2013-07-16 00:16:00,76.2,76.2,30.11,North,359,0.0,25.4,100,0.01,,SKC,0.01,VWS V14.01,2013-07-16 04:16:00,
2013-07-16 00:19:00,76.2,76.2,30.12,North,359,0.0,25.4,100,0.01,,SKC,0.01,VWS V14.01,2013-07-16 04:19:00,
2013-07-16 00:20:00,76.1,76.1,30.12,North,359,0.0,25.4,100,0.01,,SKC,0.01,VWS V14.01,2013-07-16 04:20:00,
2013-07-16 00:22:00,76.1,76.1,30.11,North,359,0.0,25.4,100,0.01,,SKC,0.01,VWS V14.01,2013-07-16 04:22:00,
2013-07-16 00:24:00,76.2,76.2,30.11,North,359,0.0,25.4,100,0.01,,SKC,0.01,VWS V14.01,2013-07-16 04:24:00,
2013-07-16 00:25:00,76.1,76.1,30.11,North,359,0.0,25.4,100,0.01,,SKC,0.01,VWS V14.01,2013-07-16 04:25:00,
2013-07-16 00:27:00,76.1,76.1,30.11,North,359,0.0,25.4,100,0.01,,SKC,0.01,VWS V14.01,2013-07-16 04:27:00,
2013-07-16 00:29:00,76.1,76.1,30.11,North,359,0.0,25.4,100,0.01,,SKC,0.01,VWS V14.01,2013-07-16 04:29:00,
2013-07-16 00:30:00,76.1,76.1,30.11,North,359,0.0,25.4,100,0.01,,SKC,0.01,VWS V14.01,2013-07-16 04:30:00,
2013-07-16 00:31:00,76.0,76.0,30.11,North,359,0.0,25.4,100,0.01,,SKC,0.01,VWS V14.01,2013-07-16 04:31:00,
2013-07-16 00:32:00,76.0,76.0,30.11,North,359,0.0,25.4,100,0.01,,SKC,0.01,VWS V14.01,2013-07-16 04:32:00,
2013-07-16 00:34:00,76.0,76.0,30.10,North,359,0.0,25.4,100,0.01,,SKC,0.01,VWS V14.01,2013-07-16 04:34:00,
2013-07-16 00:35:00,76.1,76.1,30.10,North,359,0.0,25.4,100,0.01,,SKC,0.01,VWS V14.01,2013-07-16 04:35:00,
2013-07-16 00:36:00,76.0,76.0,30.10,North,359,0.0,25.4,100,0.01,,SKC,0.01,VWS V14.01,2013-07-16 04:36:00,
2013-07-16 00:38:00,76.0,76.0,30.10,North,359,0.0,25.4,100,0.01,,SKC,0.01,VWS V14.01,2013-07-16 04:38:00,
2013-07-16 00:39:00,76.0,76.0,30.10,North,359,0.0,25.4,100,0.01,,SKC,0.01,VWS V14.01,2013-07-16 04:39:00,
2013-07-16 00:40:00,76.0,76.0,30.10,North,359,0.0,25.4,100,0.01,,SKC,0.01,VWS V14.01,2013-07-16 04:40:00,
2013-07-16 00:41:00,76.0,76.0,30.10,North,359,0.0,25.4,100,0.01,,SKC,0.01,VWS V14.01,2013-07-16 04:41:00,
2013-07-16 00:43:00,75.9,75.9,30.10,North,359,0.0,25.4,100,0.01,,SKC,0.01,VWS V14.01,2013-07-16 04:43:00,
2013-07-16 00:45:00,75.9,75.9,30.10,North,359,0.0,25.4,100,0.01,,SKC,0.01,VWS V14.01,2013-07-16 04:45:00,
2013-07-16 00:46:00,75.9,75.9,30.10,North,359,0.0,25.4,100,0.01,,SKC,0.01,VWS V14.01,2013-07-16 04:46:00,
2013-07-16 00:48:00,75.9,75.9,30.10,North,359,0.0,25.4,100,0.01,,SKC,0.01,VWS V14.01,2013-07-16 04:48:00,
2013-07-16 00:50:00,75.9,75.9,30.10,North,359,0.0,25.4,100,0.01,,SKC,0.01,VWS V14.01,2013-07-16 04:50:00,
2013-07-16 00:51:00,75.8,75.8,30.10,North,359,0.0,25.4,100,0.01,,SKC,0.01,VWS V14.01,2013-07-16 04:51:00,
2013-07-16 00:52:00,75.8,75.8,30.10,North,359,0.0,25.4,100,0.01,,SKC,0.01,VWS V14.01,2013-07-16 04:52:00,
2013-07-16 00:53:00,75.8,75.8,30.10,North,359,0.0,25.4,100,0.01,,SKC,0.01,VWS V14.01,2013-07-16 04:53:00,
2013-07-16 00:55:00,75.8,75.8,30.10,North,359,0.0,25.4,100,0.01,,SKC,0.01,VWS V14.01,2013-07-16 04:55:00,
2013-07-16 00:56:00,75.7,75.7,30.10,North,359,0.0,25.4,100,0.01,,SKC,0.01,VWS V14.01,2013-07-16 04:56:00,
2013-07-16 00:57:00,75.7,75.7,30.10,North,359,0.0,25.4,100,0.01,,SKC,0.01,VWS V14.01,2013-07-16 04:57:00,
2013-07-16 00:58:00,75.7,75.7,30.10,North,359,0.0,25.4,100,0.01,,SKC,0.01,VWS V14.01,2013-07-16 04:58:00,
2013-07-16 01:00:00,75.8,75.8,30.10,North,359,0.0,0.0,100,0.00,,SKC,0.01,VWS V14.01,2013-07-16 05:00:00,
2013-07-16 01:01:00,75.7,75.7,30.10,North,359,0.0,0.0,100,0.00,,SKC,0.01,VWS V14.01,2013-07-16 05:01:00,
2013-07-16 01:02:00,75.6,75.6,30.10,North,359,0.0,0.0,100,0.00,,SKC,0.01,VWS V14.01,2013-07-16 05:02:00,
2013-07-16 01:03:00,75.7,75.7,30.10,North,359,0.0,0.0,100,0.00,,SKC,0.01,VWS V14.01,2013-07-16 05:03:00,
2013-07-16 01:04:00,75.0,75.0,30.11,North,359,0.0,0.0,100,0.00,,SKC,0.00,VWS V14.01,2013-07-16 05:04:00,
2013-07-16 01:05:00,75.6,75.6,30.10,North,359,0.0,0.0,100,0.00,,SKC,0.01,VWS V14.01,2013-07-16 05:05:00,
2013-07-16 01:06:00,75.6,75.6,30.10,North,359,0.0,0.0,100,0.00,,SKC,0.01,VWS V14.01,2013-07-16 05:06:00,
2013-07-16 01:07:00,75.6,75.6,30.10,North,359,0.0,0.0,100,0.00,,SKC,0.01,VWS V14.01,2013-07-16 05:07:00,
2013-07-16 01:08:00,75.6,75.6,30.10,North,359,0.0,0.0,100,0.00,,SKC,0.01,VWS V14.01,2013-07-16 05:08:00,
2013-07-16 01:11:00,75.5,75.5,30.10,North,359,0.0,0.0,100,0.00,,SKC,0.01,VWS V14.01,2013-07-16 05:11:00,
2013-07-16 01:12:00,75.5,75.5,30.10,North,359,0.0,0.0,100,0.00,,SKC,0.01,VWS V14.01,2013-07-16 05:12:00,
2013-07-16 01:13:00,75.4,75.4,30.10,North,359,0.0,0.0,100,0.00,,SKC,0.01,VWS V14.01,2013-07-16 05:13:00,
2013-07-16 01:14:00,75.4,75.4,30.10,North,359,0.0,0.0,100,0.00,,SKC,0.01,VWS V14.01,2013-07-16 05:14:00,
2013-07-16 01:16:00,75.3,75.3,30.10,North,359,0.0,0.0,100,0.00,,SKC,0.01,VWS V14.01,2013-07-16 05:16:00,
2013-07-16 01:17:00,75.4,75.4,30.10,North,359,0.0,0.0,100,0.00,,SKC,0.01,VWS V14.01,2013-07-16 05:17:00,
2013-07-16 01:18:00,75.3,75.3,30.10,North,359,0.0,0.0,100,0.00,,SKC,0.01,VWS V14.01,2013-07-16 05:18:00,
2013-07-16 01:19:00,75.4,75.4,30.10,North,359,0.0,0.0,100,0.00,,SKC,0.01,VWS V14.01,2013-07-16 05:19:00,
2013-07-16 01:21:00,75.3,75.3,30.10,North,359,0.0,0.0,100,0.00,,SKC,0.01,VWS V14.01,2013-07-16 05:21:00,
2013-07-16 01:22:00,75.2,75.2,30.10,North,359,0.0,0.0,100,0.00,,SKC,0.01,VWS V14.01,2013-07-16 05:22:00,
2013-07-16 01:23:00,75.2,75.2,30.10,North,359,0.0,0.0,100,0.00,,SKC,0.01,VWS V14.01,2013-07-16 05:23:00,
2013-07-16 01:24:00,75.2,75.2,30.10,North,359,0.0,0.0,100,0.00,,SKC,0.01,VWS V14.01,2013-07-16 05:24:00,
2013-07-16 01:26:00,75.2,75.2,30.10,North,359,0.0,0.0,100,0.00,,SKC,0.01,VWS V14.01,2013-07-16 05:26:00,
2013-07-16 01:27:00,75.2,75.2,30.10,North,359,0.0,0.0,100,0.00,,SKC,0.01,VWS V14.01,2013-07-16 05:27:00,
2013-07-16 01:28:00,75.2,75.2,30.10,North,359,0.0,0.0,100,0.00,,SKC,0.01,VWS V14.01,2013-07-16 05:28:00,
2013-07-16 01:29:00,75.2,75.2,30.10,North,359,0.0,0.0,100,0.00,,SKC,0.01,VWS V14.01,2013-07-16 05:29:00,
2013-07-16 01:31:00,75.2,75.2,30.10,North,359,0.0,0.0,100,0.00,,SKC,0.01,VWS V14.01,2013-07-16 05:31:00,
2013-07-16 01:32:00,75.1,75.1,30.10,North,359,0.0,0.0,100,0.00,,SKC,0.01,VWS V14.01,2013-07-16 05:32:00,
2013-07-16 01:33:00,75.2,75.2,30.10,North,359,0.0,0.0,100,0.00,,SKC,0.01,VWS V14.01,2013-07-16 05:33:00,
2013-07-16 01:34:00,75.1,75.1,30.10,North,359,0.0,0.0,100,0.00,,SKC,0.01,VWS V14.01,2013-07-16 05:34:00,
2013-07-16 01:36:00,75.1,75.1,30.10,North,359,0.0,0.0,100,0.00,,SKC,0.01,VWS V14.01,2013-07-16 05:36:00,
2013-07-16 01:37:00,75.1,75.1,30.10,North,359,0.0,0.0,100,0.00,,SKC,0.01,VWS V14.01,2013-07-16 05:37:00,
2013-07-16 01:38:00,75.1,75.1,30.10,North,359,0.0,0.0,100,0.00,,SKC,0.01,VWS V14.01,2013-07-16 05:38:00,
2013-07-16 01:39:00,75.1,75.1,30.10,North,359,0.0,0.0,100,0.00,,SKC,0.01,VWS V14.01,2013-07-16 05:39:00,
2013-07-16 01:41:00,75.1,75.0,30.10,North,359,0.0,0.0,100,0.00,,SKC,0.01,VWS V14.01,2013-07-16 05:41:00,
2013-07-16 01:42:00,75.0,75.0,30.10,North,359,0.0,0.0,100,0.00,,SKC,0.01,VWS V14.01,2013-07-16 05:42:00,
2013-07-16 01:43:00,75.0,75.0,30.10,North,359,0.0,0.0,100,0.00,,SKC,0.01,VWS V14.01,2013-07-16 05:43:00,
2013-07-16 01:44:00,75.0,75.0,30.10,North,359,0.0,0.0,100,0.00,,SKC,0.01,VWS V14.01,2013-07-16 05:44:00,
2013-07-16 01:46:00,75.0,75.0,30.10,North,359,0.0,0.0,100,0.00,,SKC,0.01,VWS V14.01,2013-07-16 05:46:00,
2013-07-16 01:47:00,75.0,75.0,30.10,North,359,0.0,0.0,100,0.00,,SKC,0.01,VWS V14.01,2013-07-16 05:47:00,
2013-07-16 01:48:00,75.0,75.0,30.10,North,359,0.0,0.0,100,0.00,,SKC,0.01,VWS V14.01,2013-07-16 05:48:00,
2013-07-16 01:49:00,75.0,75.0,30.10,North,359,0.0,0.0,100,0.00,,SKC,0.01,VWS V14.01,2013-07-16 05:49:00,
2013-07-16 01:51:00,75.0,75.0,30.10,North,359,0.0,0.0,100,0.00,,SKC,0.01,VWS V14.01,2013-07-16 05:51:00,
2013-07-16 01:52:00,75.0,75.0,30.10,North,359,0.0,0.0,100,0.00,,SKC,0.01,VWS V14.01,2013-07-16 05:52:00,
2013-07-16 01:53:00,75.1,75.1,30.10,North,359,0.0,0.0,100,0.00,,SKC,0.01,VWS V14.01,2013-07-16 05:53:00,
2013-07-16 01:55:00,75.1,75.1,30.10,North,359,0.0,0.0,100,0.00,,SKC,0.01,VWS V14.01,2013-07-16 05:55:00,
2013-07-16 01:58:00,75.0,75.0,30.10,North,359,0.0,0.0,100,0.00,,SKC,0.00,VWS V14.01,2013-07-16 05:58:00,
2013-07-16 01:59:00,75.0,75.0,30.10,North,359,0.0,0.0,100,0.00,,SKC,0.00,VWS V14.01,2013-07-16 05:59:00,
2013-07-16 02:00:00,75.0,75.0,30.10,North,359,0.0,0.0,100,0.00,,SKC,0.00,VWS V14.01,2013-07-16 06:00:00,
2013-07-16 02:04:00,75.0,75.1,30.10,North,359,0.0,0.0,100,0.00,,SKC,0.00,VWS V14.01,2013-07-16 06:04:00,
2013-07-16 02:05:00,75.1,75.1,30.10,North,359,0.0,0.0,100,0.00,,SKC,0.00,VWS V14.01,2013-07-16 06:05:00,
2013-07-16 02:09:00,75.1,75.1,30.11,North,359,0.0,0.0,100,0.00,,SKC,0.00,VWS V14.01,2013-07-16 06:09:00,
2013-07-16 02:10:00,75.1,75.1,30.11,North,359,0.0,0.0,100,0.00,,SKC,0.00,VWS V14.01,2013-07-16 06:10:00,
2013-07-16 02:11:00,75.1,75.1,30.11,North,359,0.0,0.0,100,0.00,,SKC,0.00,VWS V14.01,2013-07-16 06:11:00,
2013-07-16 02:14:00,75.0,75.0,30.11,North,359,0.0,0.0,100,0.00,,SKC,0.00,VWS V14.01,2013-07-16 06:14:00,
2013-07-16 02:15:00,75.1,75.1,30.11,North,359,0.0,0.0,100,0.00,,SKC,0.00,VWS V14.01,2013-07-16 06:15:00,
2013-07-16 02:16:00,75.1,75.1,30.11,North,359,0.0,0.0,100,0.00,,SKC,0.00,VWS V14.01,2013-07-16 06:16:00,
2013-07-16 02:19:00,75.0,75.0,30.11,North,359,0.0,0.0,100,0.00,,SKC,0.00,VWS V14.01,2013-07-16 06:19:00,
2013-07-16 02:20:00,75.1,75.0,30.11,North,359,0.0,0.0,100,0.00,,SKC,0.00,VWS V14.01,2013-07-16 06:20:00,
2013-07-16 02:21:00,75.1,75.1,30.11,North,359,0.0,0.0,100,0.00,,SKC,0.00,VWS V14.01,2013-07-16 06:21:00,
2013-07-16 02:24:00,75.1,75.1,30.11,North,359,0.0,0.0,100,0.00,,SKC,0.00,VWS V14.01,2013-07-16 06:24:00,
2013-07-16 02:25:00,75.1,75.1,30.10,North,359,0.0,0.0,100,0.00,,SKC,0.00,VWS V14.01,2013-07-16 06:25:00,
2013-07-16 02:26:00,75.1,75.1,30.11,North,359,0.0,0.0,100,0.00,,SKC,0.00,VWS V14.01,2013-07-16 06:26:00,
2013-07-16 02:30:00,75.1,75.1,30.11,North,359,0.0,0.0,100,0.00,,SKC,0.00,VWS V14.01,2013-07-16 06:30:00,
2013-07-16 02:31:00,75.1,75.1,30.10,North,359,0.0,0.0,100,0.00,,SKC,0.00,VWS V14.01,2013-07-16 06:31:00,
2013-07-16 02:32:00,75.1,75.1,30.11,North,359,0.0,0.0,100,0.00,,SKC,0.00,VWS V14.01,2013-07-16 06:32:00,
2013-07-16 02:35:00,75.2,75.2,30.10,North,359,0.0,0.0,100,0.00,,SKC,0.00,VWS V14.01,2013-07-16 06:35:00,
2013-07-16 02:37:00,75.2,75.2,30.10,North,359,0.0,0.0,100,0.00,,SKC,0.00,VWS V14.01,2013-07-16 06:37:00,
2013-07-16 02:40:00,75.2,75.2,30.10,North,359,0.0,0.0,100,0.00,,SKC,0.00,VWS V14.01,2013-07-16 06:40:00,
2013-07-16 02:42:00,75.1,75.2,30.10,North,359,0.0,0.0,100,0.00,,SKC,0.00,VWS V14.01,2013-07-16 06:42:00,
2013-07-16 02:45:00,75.2,75.2,30.11,North,359,0.0,0.0,100,0.00,,SKC,0.00,VWS V14.01,2013-07-16 06:45:00,
2013-07-16 02:46:00,75.2,75.2,30.11,North,359,0.0,0.0,100,0.00,,SKC,0.00,VWS V14.01,2013-07-16 06:46:00,
2013-07-16 02:47:00,75.2,75.2,30.10,North,359,0.0,0.0,100,0.00,,SKC,0.00,VWS V14.01,2013-07-16 06:47:00,
2013-07-16 02:50:00,75.1,75.1,30.10,North,359,0.0,0.0,100,0.00,,SKC,0.00,VWS V14.01,2013-07-16 06:50:00,
2013-07-16 02:51:00,75.1,75.1,30.11,North,359,0.0,0.0,100,0.00,,SKC,0.00,VWS V14.01,2013-07-16 06:51:00,
2013-07-16 02:52:00,75.2,75.2,30.10,North,359,0.0,0.0,100,0.00,,SKC,0.00,VWS V14.01,2013-07-16 06:52:00,
2013-07-16 02:55:00,75.2,75.2,30.10,North,359,0.0,0.0,100,0.00,,SKC,0.00,VWS V14.01,2013-07-16 06:55:00,
2013-07-16 02:56:00,75.2,75.2,30.10,North,359,0.0,0.0,100,0.00,,SKC,0.00,VWS V14.01,2013-07-16 06:56:00,
2013-07-16 02:57:00,75.2,75.2,30.10,North,359,0.0,0.0,100,0.00,,SKC,0.00,VWS V14.01,2013-07-16 06:57:00,
2013-07-16 03:00:00,75.2,75.2,30.10,North,359,0.0,0.0,100,0.00,,SKC,0.00,VWS V14.01,2013-07-16 07:00:00,
2013-07-16 03:01:00,75.2,75.2,30.10,North,359,0.0,0.0,100,0.00,,SKC,0.00,VWS V14.01,2013-07-16 07:01:00,
2013-07-16 03:02:00,75.2,75.2,30.10,North,359,0.0,0.0,100,0.00,,SKC,0.00,VWS V14.01,2013-07-16 07:02:00,
2013-07-16 03:05:00,75.3,75.3,30.10,North,359,0.0,0.0,100,0.00,,SKC,0.00,VWS V14.01,2013-07-16 07:05:00,
2013-07-16 03:06:00,75.3,75.3,30.10,North,359,0.0,0.0,100,0.00,,SKC,0.00,VWS V14.01,2013-07-16 07:06:00,
2013-07-16 03:07:00,75.3,75.3,30.10,North,359,0.0,0.0,100,0.00,,SKC,0.00,VWS V14.01,2013-07-16 07:07:00,
2013-07-16 03:08:00,75.3,75.3,30.10,North,359,0.0,0.0,100,0.00,,SKC,0.00,VWS V14.01,2013-07-16 07:08:00,
2013-07-16 03:10:00,75.3,75.3,30.11,North,359,0.0,0.0,100,0.00,,SKC,0.00,VWS V14.01,2013-07-16 07:10:00,
2013-07-16 03:11:00,75.4,75.4,30.11,North,359,0.0,0.0,100,0.00,,SKC,0.00,VWS V14.01,2013-07-16 07:11:00,
2013-07-16 03:12:00,75.4,75.4,30.11,North,359,0.0,0.0,100,0.00,,SKC,0.00,VWS V14.01,2013-07-16 07:12:00,
2013-07-16 03:13:00,75.4,75.4,30.11,North,359,0.0,0.0,100,0.00,,SKC,0.00,VWS V14.01,2013-07-16 07:13:00,
2013-07-16 03:16:00,75.3,75.3,30.11,North,359,0.0,0.0,100,0.00,,SKC,0.00,VWS V14.01,2013-07-16 07:16:00,
2013-07-16 03:17:00,75.4,75.4,30.10,North,359,0.0,0.0,100,0.00,,SKC,0.00,VWS V14.01,2013-07-16 07:17:00,
2013-07-16 03:18:00,75.5,75.5,30.10,North,359,0.0,0.0,100,0.00,,SKC,0.00,VWS V14.01,2013-07-16 07:18:00,
2013-07-16 03:21:00,75.4,75.4,30.10,North,359,0.0,0.0,100,0.00,,SKC,0.00,VWS V14.01,2013-07-16 07:21:00,
2013-07-16 03:22:00,75.4,75.4,30.10,North,359,0.0,0.0,100,0.00,,SKC,0.00,VWS V14.01,2013-07-16 07:22:00,
2013-07-16 03:23:00,75.5,75.5,30.11,North,359,0.0,0.0,100,0.00,,SKC,0.00,VWS V14.01,2013-07-16 07:23:00,
2013-07-16 03:26:00,75.5,75.5,30.10,North,359,0.0,0.0,100,0.00,,SKC,0.00,VWS V14.01,2013-07-16 07:26:00,
2013-07-16 03:27:00,75.5,75.5,30.10,North,359,0.0,0.0,100,0.00,,SKC,0.00,VWS V14.01,2013-07-16 07:27:00,
2013-07-16 03:28:00,75.5,75.5,30.10,North,359,0.0,0.0,100,0.00,,SKC,0.00,VWS V14.01,2013-07-16 07:28:00,
2013-07-16 03:31:00,75.5,75.5,30.10,North,359,0.0,0.0,100,0.00,,SKC,0.00,VWS V14.01,2013-07-16 07:31:00,
2013-07-16 03:32:00,75.5,75.5,30.10,North,359,0.0,0.0,100,0.00,,SKC,0.00,VWS V14.01,2013-07-16 07:32:00,
2013-07-16 03:33:00,75.6,75.6,30.10,North,359,0.0,0.0,100,0.00,,SKC,0.00,VWS V14.01,2013-07-16 07:33:00,
2013-07-16 03:36:00,75.5,75.4,30.10,North,359,0.0,0.0,100,0.00,,SKC,0.00,VWS V14.01,2013-07-16 07:36:00,
2013-07-16 03:37:00,75.4,75.4,30.10,North,359,0.0,0.0,100,0.00,,SKC,0.00,VWS V14.01,2013-07-16 07:37:00,
2013-07-16 03:38:00,75.5,75.5,30.10,North,359,0.0,0.0,100,0.00,,SKC,0.00,VWS V14.01,2013-07-16 07:38:00,
2013-07-16 03:39:00,75.3,75.3,30.10,North,359,0.0,0.0,100,0.00,,SKC,0.00,VWS V14.01,2013-07-16 07:39:00,
2013-07-16 03:41:00,75.3,75.3,30.10,North,359,0.0,0.0,100,0.00,,SKC,0.00,VWS V14.01,2013-07-16 07:41:00,
2013-07-16 03:42:00,75.3,75.3,30.10,North,359,0.0,0.0,100,0.00,,SKC,0.00,VWS V14.01,2013-07-16 07:42:00,
2013-07-16 03:43:00,75.2,75.2,30.10,North,359,0.0,0.0,100,0.00,,SKC,0.00,VWS V14.01,2013-07-16 07:43:00,
2013-07-16 03:44:00,75.3,75.3,30.10,North,359,0.0,0.0,100,0.00,,SKC,0.00,VWS V14.01,2013-07-16 07:44:00,
2013-07-16 03:46:00,75.2,75.2,30.10,North,359,0.0,0.0,100,0.00,,SKC,0.00,VWS V14.01,2013-07-16 07:46:00,
2013-07-16 03:47:00,75.2,75.2,30.10,North,359,0.0,0.0,100,0.00,,SKC,0.00,VWS V14.01,2013-07-16 07:47:00,
2013-07-16 03:48:00,75.2,75.2,30.10,North,359,0.0,0.0,100,0.00,,SKC,0.00,VWS V14.01,2013-07-16 07:48:00,
2013-07-16 03:49:00,75.2,75.2,30.10,North,359,0.0,0.0,100,0.00,,SKC,0.00,VWS V14.01,2013-07-16 07:49:00,
2013-07-16 03:52:00,75.1,75.1,30.10,North,359,0.0,0.0,100,0.00,,SKC,0.00,VWS V14.01,2013-07-16 07:52:00,
2013-07-16 03:53:00,75.1,75.1,30.10,North,359,0.0,0.0,100,0.00,,SKC,0.00,VWS V14.01,2013-07-16 07:53:00,
2013-07-16 03:54:00,75.1,75.1,30.10,North,359,0.0,0.0,100,0.00,,SKC,0.00,VWS V14.01,2013-07-16 07:54:00,
2013-07-16 03:57:00,75.1,75.1,30.10,North,359,0.0,0.0,100,0.00,,SKC,0.00,VWS V14.01,2013-07-16 07:57:00,
2013-07-16 03:58:00,75.1,75.1,30.10,North,359,0.0,0.0,100,0.00,,SKC,0.00,VWS V14.01,2013-07-16 07:58:00,
2013-07-16 03:59:00,75.2,75.2,30.10,North,359,0.0,0.0,100,0.00,,SKC,0.00,VWS V14.01,2013-07-16 07:59:00,
2013-07-16 04:02:00,75.1,75.1,30.10,North,359,0.0,0.0,100,0.00,,SKC,0.00,VWS V14.01,2013-07-16 08:02:00,
2013-07-16 04:03:00,75.1,75.1,30.10,North,359,0.0,0.0,100,0.00,,SKC,0.00,VWS V14.01,2013-07-16 08:03:00,
2013-07-16 04:04:00,75.2,75.2,30.10,North,359,0.0,0.0,100,0.00,,SKC,0.00,VWS V14.01,2013-07-16 08:04:00,
2013-07-16 04:07:00,75.3,75.3,30.10,North,359,0.0,0.0,100,0.00,,SKC,0.00,VWS V14.01,2013-07-16 08:07:00,
2013-07-16 04:08:00,75.3,75.3,30.10,North,359,0.0,0.0,100,0.00,,SKC,0.00,VWS V14.01,2013-07-16 08:08:00,
2013-07-16 04:09:00,75.3,75.3,30.10,North,359,0.0,0.0,100,0.00,,SKC,0.00,VWS V14.01,2013-07-16 08:09:00,
2013-07-16 04:12:00,75.3,75.3,30.10,North,359,0.0,0.0,100,0.00,,SKC,0.00,VWS V14.01,2013-07-16 08:12:00,
2013-07-16 04:13:00,75.4,75.4,30.10,North,359,0.0,0.0,100,0.00,,SKC,0.00,VWS V14.01,2013-07-16 08:13:00,
2013-07-16 04:14:00,75.4,75.4,30.10,North,359,0.0,0.0,100,0.00,,SKC,0.00,VWS V14.01,2013-07-16 08:14:00,
2013-07-16 04:18:00,75.4,75.4,30.10,North,359,0.0,0.0,100,0.00,,SKC,0.00,VWS V14.01,2013-07-16 08:18:00,
2013-07-16 04:19:00,75.5,75.5,30.10,North,359,0.0,0.0,100,0.00,,SKC,0.00,VWS V14.01,2013-07-16 08:19:00,
2013-07-16 04:23:00,75.5,75.5,30.10,North,359,0.0,0.0,100,0.00,,SKC,0.00,VWS V14.01,2013-07-16 08:23:00,
2013-07-16 04:24:00,75.4,75.4,30.10,North,359,0.0,0.0,100,0.00,,SKC,0.00,VWS V14.01,2013-07-16 08:24:00,
2013-07-16 04:28:00,75.4,75.4,30.10,North,359,0.0,0.0,100,0.00,,SKC,0.00,VWS V14.01,2013-07-16 08:28:00,
2013-07-16 04:29:00,75.4,75.4,30.10,North,359,0.0,0.0,100,0.00,,SKC,0.00,VWS V14.01,2013-07-16 08:29:00,
2013-07-16 04:33:00,75.4,75.4,30.10,North,359,0.0,0.0,100,0.00,,SKC,0.00,VWS V14.01,2013-07-16 08:33:00,
2013-07-16 04:34:00,75.4,75.5,30.10,North,359,0.0,0.0,100,0.00,,SKC,0.00,VWS V14.01,2013-07-16 08:34:00,
2013-07-16 04:35:00,75.5,75.5,30.10,North,359,0.0,0.0,100,0.00,,SKC,0.00,VWS V14.01,2013-07-16 08:35:00,
2013-07-16 04:38:00,75.4,75.4,30.10,North,359,0.0,0.0,100,0.00,,SKC,0.00,VWS V14.01,2013-07-16 08:38:00,
2013-07-16 04:39:00,75.4,75.4,30.10,North,359,0.0,0.0,100,0.00,,SKC,0.00,VWS V14.01,2013-07-16 08:39:00,
2013-07-16 04:40:00,75.4,75.4,30.10,North,359,0.0,0.0,100,0.00,,SKC,0.00,VWS V14.01,2013-07-16 08:40:00,
2013-07-16 04:43:00,75.4,75.4,30.10,North,359,0.0,0.0,100,0.00,,SKC,0.00,VWS V14.01,2013-07-16 08:43:00,
2013-07-16 04:44:00,75.4,75.4,30.10,North,359,0.0,0.0,100,0.00,,SKC,0.00,VWS V14.01,2013-07-16 08:44:00,
2013-07-16 04:45:00,75.3,75.3,30.10,North,359,0.0,0.0,100,0.00,,SKC,0.00,VWS V14.01,2013-07-16 08:45:00,
2013-07-16 04:48:00,75.4,75.4,30.09,North,359,0.0,0.0,100,0.00,,SKC,0.00,VWS V14.01,2013-07-16 08:48:00,
2013-07-16 04:49:00,75.3,75.3,30.09,North,359,0.0,0.0,100,0.00,,SKC,0.00,VWS V14.01,2013-07-16 08:49:00,
2013-07-16 04:50:00,75.3,75.3,30.09,North,359,0.0,0.0,100,0.00,,SKC,0.00,VWS V14.01,2013-07-16 08:50:00,
2013-07-16 04:53:00,75.3,75.3,30.09,North,359,0.0,0.0,100,0.00,,SKC,0.00,VWS V14.01,2013-07-16 08:53:00,
2013-07-16 04:54:00,75.3,75.3,30.09,North,359,0.0,0.0,100,0.00,,SKC,0.00,VWS V14.01,2013-07-16 08:54:00,
2013-07-16 04:55:00,75.2,75.2,30.09,North,359,0.0,0.0,100,0.00,,SKC,0.00,VWS V14.01,2013-07-16 08:55:00,
2013-07-16 04:59:00,75.3,75.3,30.09,North,359,0.0,0.0,100,0.00,,SKC,0.00,VWS V14.01,2013-07-16 08:59:00,
2013-07-16 05:00:00,75.3,75.3,30.09,North,359,0.0,0.0,100,0.00,,SKC,0.00,VWS V14.01,2013-07-16 09:00:00,
2013-07-16 05:01:00,75.2,75.2,30.09,North,359,0.0,0.0,100,0.00,,SKC,0.00,VWS V14.01,2013-07-16 09:01:00,
2013-07-16 05:04:00,75.3,75.3,30.08,North,359,0.0,0.0,100,0.00,,SKC,0.00,VWS V14.01,2013-07-16 09:04:00,
2013-07-16 05:05:00,75.2,75.2,30.09,North,359,0.0,0.0,100,0.00,,SKC,0.00,VWS V14.01,2013-07-16 09:05:00,
2013-07-16 05:06:00,75.3,75.3,30.09,North,359,0.0,0.0,100,0.00,,SKC,0.00,VWS V14.01,2013-07-16 09:06:00,
2013-07-16 05:09:00,75.3,75.3,30.09,North,359,0.0,0.0,100,0.00,,SKC,0.00,VWS V14.01,2013-07-16 09:09:00,
2013-07-16 05:10:00,75.3,75.3,30.09,North,359,0.0,0.0,100,0.00,,SKC,0.00,VWS V14.01,2013-07-16 09:10:00,
2013-07-16 05:11:00,75.3,75.3,30.08,North,359,0.0,0.0,100,0.00,,SKC,0.00,VWS V14.01,2013-07-16 09:11:00,
2013-07-16 05:14:00,75.2,75.2,30.08,North,359,0.0,0.0,100,0.00,,SKC,0.00,VWS V14.01,2013-07-16 09:14:00,
2013-07-16 05:15:00,75.3,75.3,30.08,North,359,0.0,0.0,100,0.00,,SKC,0.00,VWS V14.01,2013-07-16 09:15:00,
2013-07-16 05:16:00,75.2,75.2,30.08,North,359,0.0,0.0,100,0.00,,SKC,0.00,VWS V14.01,2013-07-16 09:16:00,
2013-07-16 05:19:00,75.3,75.3,30.08,North,359,0.0,0.0,100,0.00,,SKC,0.00,VWS V14.01,2013-07-16 09:19:00,
2013-07-16 05:20:00,75.2,75.2,30.08,North,359,0.0,0.0,100,0.00,,SKC,0.00,VWS V14.01,2013-07-16 09:20:00,
2013-07-16 05:22:00,75.3,75.3,30.08,North,359,0.0,0.0,100,0.00,,SKC,0.00,VWS V14.01,2013-07-16 09:22:00,
2013-07-16 05:24:00,75.2,75.2,30.08,North,359,0.0,0.0,100,0.00,,SKC,0.00,VWS V14.01,2013-07-16 09:24:00,
2013-07-16 05:25:00,75.3,75.3,30.08,North,359,0.0,0.0,100,0.00,,SKC,0.00,VWS V14.01,2013-07-16 09:25:00,
2013-07-16 05:27:00,75.2,75.2,30.08,North,359,0.0,0.0,100,0.00,,SKC,0.00,VWS V14.01,2013-07-16 09:27:00,
2013-07-16 05:29:00,75.3,75.3,30.08,North,359,0.0,0.0,100,0.00,,SKC,0.00,VWS V14.01,2013-07-16 09:29:00,
2013-07-16 05:30:00,75.2,75.2,30.08,North,359,0.0,0.0,100,0.00,,SKC,0.00,VWS V14.01,2013-07-16 09:30:00,
2013-07-16 05:31:00,75.1,75.1,30.09,North,359,0.0,0.0,100,0.00,,SKC,0.00,VWS V14.01,2013-07-16 09:31:00,
2013-07-16 05:32:00,75.1,75.1,30.09,North,359,0.0,0.0,100,0.00,,SKC,0.00,VWS V14.01,2013-07-16 09:32:00,
2013-07-16 05:34:00,75.2,75.2,30.09,North,359,0.0,0.0,100,0.00,,SKC,0.00,VWS V14.01,2013-07-16 09:34:00,
2013-07-16 05:35:00,75.1,75.1,30.08,North,359,0.0,0.0,100,0.00,,SKC,0.00,VWS V14.01,2013-07-16 09:35:00,
2013-07-16 05:36:00,75.1,75.1,30.08,North,359,0.0,0.0,100,0.00,,SKC,0.00,VWS V14.01,2013-07-16 09:36:00,
2013-07-16 05:38:00,75.1,75.1,30.08,North,359,0.0,0.0,100,0.00,,SKC,0.00,VWS V14.01,2013-07-16 09:38:00,
2013-07-16 05:39:00,75.2,75.2,30.08,North,359,0.0,0.0,100,0.00,,SKC,0.00,VWS V14.01,2013-07-16 09:39:00,
2013-07-16 05:40:00,75.1,75.1,30.08,North,359,0.0,0.0,100,0.00,,SKC,0.00,VWS V14.01,2013-07-16 09:40:00,
2013-07-16 05:41:00,75.1,75.1,30.08,North,359,0.0,0.0,100,0.00,,SKC,0.00,VWS V14.01,2013-07-16 09:41:00,
2013-07-16 05:43:00,75.1,75.1,30.08,North,359,0.0,0.0,100,0.00,,SKC,0.00,VWS V14.01,2013-07-16 09:43:00,
2013-07-16 05:45:00,75.0,75.0,30.08,North,359,0.0,0.0,100,0.00,,SKC,0.00,VWS V14.01,2013-07-16 09:45:00,
2013-07-16 05:46:00,75.0,75.0,30.08,North,359,0.0,0.0,100,0.00,,SKC,0.00,VWS V14.01,2013-07-16 09:46:00,
2013-07-16 05:47:00,75.0,75.0,30.08,North,359,0.0,0.0,100,0.00,,SKC,0.00,VWS V14.01,2013-07-16 09:47:00,
2013-07-16 05:50:00,75.0,75.0,30.08,North,359,0.0,0.0,100,0.00,,SKC,0.00,VWS V14.01,2013-07-16 09:50:00,
2013-07-16 05:51:00,75.0,75.0,30.08,North,359,0.0,0.0,100,0.00,,SKC,0.00,VWS V14.01,2013-07-16 09:51:00,
2013-07-16 05:52:00,75.0,75.0,30.08,North,359,0.0,0.0,100,0.00,,SKC,0.00,VWS V14.01,2013-07-16 09:52:00,
2013-07-16 05:55:00,74.9,74.9,30.08,North,359,0.0,0.0,100,0.00,,SKC,0.00,VWS V14.01,2013-07-16 09:55:00,
2013-07-16 05:56:00,74.9,74.9,30.08,North,359,0.0,0.0,100,0.00,,SKC,0.00,VWS V14.01,2013-07-16 09:56:00,
2013-07-16 05:57:00,74.9,74.9,30.08,North,359,0.0,0.0,100,0.00,,SKC,0.00,VWS V14.01,2013-07-16 09:57:00,
2013-07-16 05:58:00,74.9,74.9,30.08,North,359,0.0,0.0,100,0.00,,SKC,0.00,VWS V14.01,2013-07-16 09:58:00,
2013-07-16 06:00:00,74.8,74.8,30.08,North,359,0.0,0.0,100,0.00,,SKC,0.00,VWS V14.01,2013-07-16 10:00:00,
2013-07-16 06:01:00,74.8,74.8,30.08,North,359,0.0,0.0,100,0.00,,SKC,0.00,VWS V14.01,2013-07-16 10:01:00,
2013-07-16 06:02:00,74.8,74.8,30.08,North,359,0.0,0.0,100,0.00,,SKC,0.00,VWS V14.01,2013-07-16 10:02:00,
2013-07-16 06:03:00,74.8,74.8,30.08,North,359,0.0,0.0,100,0.00,,SKC,0.00,VWS V14.01,2013-07-16 10:03:00,
2013-07-16 06:05:00,74.8,74.7,30.08,North,359,0.0,0.0,100,0.00,,SKC,0.00,VWS V14.01,2013-07-16 10:05:00,
2013-07-16 06:06:00,74.7,74.7,30.08,North,359,0.0,0.0,100,0.00,,SKC,0.00,VWS V14.01,2013-07-16 10:06:00,
2013-07-16 06:07:00,74.7,74.7,30.09,North,359,0.0,0.0,100,0.00,,SKC,0.00,VWS V14.01,2013-07-16 10:07:00,
2013-07-16 06:08:00,74.8,74.8,30.09,North,359,0.0,0.0,100,0.00,,SKC,0.00,VWS V14.01,2013-07-16 10:08:00,
2013-07-16 06:10:00,74.7,74.7,30.09,North,359,0.0,0.0,100,0.00,,SKC,0.00,VWS V14.01,2013-07-16 10:10:00,
2013-07-16 06:11:00,74.7,74.7,30.09,North,359,0.0,0.0,100,0.00,,SKC,0.00,VWS V14.01,2013-07-16 10:11:00,
2013-07-16 06:12:00,74.7,74.7,30.09,North,359,0.0,0.0,100,0.00,,SKC,0.00,VWS V14.01,2013-07-16 10:12:00,
2013-07-16 06:13:00,74.7,74.7,30.09,North,359,0.0,0.0,100,0.00,,SKC,0.00,VWS V14.01,2013-07-16 10:13:00,
2013-07-16 06:16:00,74.7,74.7,30.09,North,359,0.0,0.0,100,0.00,,SKC,0.00,VWS V14.01,2013-07-16 10:16:00,
2013-07-16 06:17:00,74.7,74.7,30.09,North,359,0.0,0.0,100,0.00,,SKC,0.00,VWS V14.01,2013-07-16 10:17:00,
2013-07-16 06:18:00,74.7,74.7,30.09,North,359,0.0,0.0,100,0.00,,SKC,0.00,VWS V14.01,2013-07-16 10:18:00,
2013-07-16 06:19:00,74.7,74.7,30.09,North,359,0.0,0.0,100,0.00,,SKC,0.00,VWS V14.01,2013-07-16 10:19:00,
2013-07-16 06:21:00,74.7,74.7,30.09,North,359,0.0,0.0,100,0.00,,SKC,0.00,VWS V14.01,2013-07-16 10:21:00,
2013-07-16 06:22:00,74.7,74.7,30.09,North,359,0.0,0.0,100,0.00,,SKC,0.00,VWS V14.01,2013-07-16 10:22:00,
2013-07-16 06:23:00,74.6,74.6,30.09,North,359,0.0,0.0,100,0.00,,SKC,0.00,VWS V14.01,2013-07-16 10:23:00,
2013-07-16 06:24:00,74.7,74.7,30.09,North,359,0.0,0.0,100,0.00,,SKC,0.00,VWS V14.01,2013-07-16 10:24:00,
2013-07-16 06:26:00,74.7,74.6,30.10,North,359,0.0,0.0,100,0.00,,SKC,0.00,VWS V14.01,2013-07-16 10:26:00,
2013-07-16 06:27:00,74.7,74.7,30.10,North,359,0.0,0.0,100,0.00,,SKC,0.00,VWS V14.01,2013-07-16 10:27:00,
2013-07-16 06:28:00,74.6,74.6,30.10,North,359,0.0,0.0,100,0.00,,SKC,0.00,VWS V14.01,2013-07-16 10:28:00,
2013-07-16 06:29:00,74.7,74.7,30.10,North,359,0.0,0.0,100,0.00,,SKC,0.00,VWS V14.01,2013-07-16 10:29:00,
2013-07-16 06:31:00,74.7,74.7,30.10,North,359,0.0,0.0,100,0.00,,SKC,0.00,VWS V14.01,2013-07-16 10:31:00,
2013-07-16 06:32:00,74.6,74.6,30.10,North,359,0.0,0.0,100,0.00,,SKC,0.00,VWS V14.01,2013-07-16 10:32:00,
2013-07-16 06:33:00,74.6,74.6,30.10,North,359,0.0,0.0,100,0.00,,SKC,0.00,VWS V14.01,2013-07-16 10:33:00,
2013-07-16 06:34:00,74.5,74.5,30.10,North,359,0.0,0.0,100,0.00,,SKC,0.00,VWS V14.01,2013-07-16 10:34:00,
2013-07-16 06:36:00,74.5,74.5,30.10,North,359,0.0,0.0,100,0.00,,SKC,0.00,VWS V14.01,2013-07-16 10:36:00,
2013-07-16 06:37:00,74.5,74.5,30.10,North,359,0.0,0.0,100,0.00,,SKC,0.00,VWS V14.01,2013-07-16 10:37:00,
2013-07-16 06:38:00,74.6,74.6,30.10,North,359,0.0,0.0,100,0.00,,SKC,0.00,VWS V14.01,2013-07-16 10:38:00,
2013-07-16 06:39:00,74.5,74.5,30.10,North,359,0.0,0.0,100,0.00,,SKC,0.00,VWS V14.01,2013-07-16 10:39:00,
2013-07-16 06:42:00,74.4,74.4,30.10,North,359,0.0,0.0,100,0.00,,SKC,0.00,VWS V14.01,2013-07-16 10:42:00,
2013-07-16 06:43:00,74.4,74.4,30.10,North,359,0.0,0.0,100,0.00,,SKC,0.00,VWS V14.01,2013-07-16 10:43:00,
2013-07-16 06:45:00,74.4,74.4,30.10,North,359,0.0,0.0,100,0.00,,SKC,0.00,VWS V14.01,2013-07-16 10:45:00,
2013-07-16 06:47:00,74.4,74.4,30.11,North,359,0.0,0.0,100,0.00,,SKC,0.00,VWS V14.01,2013-07-16 10:47:00,
2013-07-16 06:48:00,74.4,74.4,30.11,North,359,0.0,0.0,100,0.00,,SKC,0.00,VWS V14.01,2013-07-16 10:48:00,
2013-07-16 06:49:00,74.4,74.4,30.11,North,359,0.0,0.0,100,0.00,,SKC,0.00,VWS V14.01,2013-07-16 10:49:00,
2013-07-16 06:50:00,74.4,74.4,30.11,North,359,0.0,0.0,100,0.00,,SKC,0.00,VWS V14.01,2013-07-16 10:50:00,
2013-07-16 06:52:00,74.4,74.4,30.11,North,359,0.0,0.0,100,0.00,,SKC,0.00,VWS V14.01,2013-07-16 10:52:00,
2013-07-16 06:53:00,74.4,74.4,30.11,North,359,0.0,0.0,100,0.00,,SKC,0.00,VWS V14.01,2013-07-16 10:53:00,
2013-07-16 06:54:00,74.4,74.4,30.11,North,359,0.0,0.6,100,0.00,,SKC,0.00,VWS V14.01,2013-07-16 10:54:00,
2013-07-16 06:55:00,74.4,74.4,30.11,North,359,0.0,0.6,100,0.00,,SKC,0.00,VWS V14.01,2013-07-16 10:55:00,
2013-07-16 06:57:00,74.4,74.4,30.11,North,359,0.0,9.3,100,0.00,,SKC,0.00,VWS V14.01,2013-07-16 10:57:00,
2013-07-16 06:58:00,74.4,74.4,30.11,North,359,0.0,9.3,100,0.00,,SKC,0.00,VWS V14.01,2013-07-16 10:58:00,
2013-07-16 06:59:00,74.4,74.4,30.11,North,359,0.0,9.3,100,0.00,,SKC,0.00,VWS V14.01,2013-07-16 10:59:00,
2013-07-16 07:00:00,74.3,74.3,30.11,South,176,2.2,9.3,100,0.00,,SKC,0.00,VWS V14.01,2013-07-16 11:00:00,
2013-07-16 07:02:00,74.3,74.3,30.10,South,177,0.0,9.3,100,0.00,,SKC,0.00,VWS V14.01,2013-07-16 11:02:00,
2013-07-16 07:03:00,74.3,74.3,30.10,South,177,0.0,9.3,100,0.00,,SKC,0.00,VWS V14.01,2013-07-16 11:03:00,
2013-07-16 07:04:00,74.3,74.3,30.11,North,359,8.1,9.3,100,0.00,,SKC,0.00,VWS V14.01,2013-07-16 11:04:00,
2013-07-16 07:05:00,74.4,74.4,30.11,SSW,194,1.1,9.3,100,0.00,,SKC,0.00,VWS V14.01,2013-07-16 11:05:00,
2013-07-16 07:08:00,74.4,74.4,30.10,North,359,2.5,9.3,100,0.00,,SKC,0.00,VWS V14.01,2013-07-16 11:08:00,
2013-07-16 07:10:00,74.4,74.4,30.11,North,359,0.0,9.3,100,0.00,,SKC,0.00,VWS V14.01,2013-07-16 11:10:00,
2013-07-16 07:11:00,74.3,74.3,30.11,North,359,0.0,9.3,100,0.00,,SKC,0.00,VWS V14.01,2013-07-16 11:11:00,
2013-07-16 07:12:00,74.4,74.4,30.11,North,359,0.0,9.3,100,0.00,,SKC,0.00,VWS V14.01,2013-07-16 11:12:00,
2013-07-16 07:13:00,74.5,74.5,30.11,North,359,0.0,9.3,100,0.00,,SKC,0.00,VWS V14.01,2013-07-16 11:13:00,
2013-07-16 07:15:00,74.4,74.4,30.11,North,359,0.0,9.3,100,0.00,,SKC,0.00,VWS V14.01,2013-07-16 11:15:00,
2013-07-16 07:16:00,74.4,74.5,30.11,North,359,0.0,9.3,100,0.00,,SKC,0.00,VWS V14.01,2013-07-16 11:16:00,
2013-07-16 07:18:00,74.5,74.5,30.11,North,359,0.0,9.3,100,0.00,,SKC,0.00,VWS V14.01,2013-07-16 11:18:00,
2013-07-16 07:20:00,74.4,74.4,30.10,North,359,0.0,9.3,100,0.00,,SKC,0.00,VWS V14.01,2013-07-16 11:20:00,
2013-07-16 07:21:00,74.4,74.4,30.10,North,359,0.0,9.3,100,0.00,,SKC,0.00,VWS V14.01,2013-07-16 11:21:00,
2013-07-16 07:23:00,74.4,74.4,30.10,North,359,0.0,9.3,100,0.00,,SKC,0.00,VWS V14.01,2013-07-16 11:23:00,
2013-07-16 07:24:00,74.4,74.4,30.10,North,359,0.0,9.3,100,0.00,,SKC,0.00,VWS V14.01,2013-07-16 11:24:00,
2013-07-16 07:25:00,74.4,74.4,30.10,North,359,0.0,9.3,100,0.00,,SKC,0.00,VWS V14.01,2013-07-16 11:25:00,
2013-07-16 07:26:00,74.3,74.3,30.11,North,359,0.0,9.3,100,0.00,,SKC,0.00,VWS V14.01,2013-07-16 11:26:00,
2013-07-16 07:28:00,74.3,74.3,30.10,North,359,0.0,9.3,100,0.00,,SKC,0.00,VWS V14.01,2013-07-16 11:28:00,
2013-07-16 07:29:00,74.3,74.3,30.10,North,359,0.0,9.3,100,0.00,,SKC,0.00,VWS V14.01,2013-07-16 11:29:00,
2013-07-16 07:30:00,74.3,74.3,30.10,South,170,0.0,9.4,100,0.00,,SKC,0.00,VWS V14.01,2013-07-16 11:30:00,
2013-07-16 07:31:00,74.3,74.3,30.10,South,170,0.0,9.4,100,0.00,,SKC,0.00,VWS V14.01,2013-07-16 11:31:00,
2013-07-16 07:33:00,74.3,74.3,30.10,South,170,0.0,9.4,100,0.00,,SKC,0.00,VWS V14.01,2013-07-16 11:33:00,
2013-07-16 07:34:00,74.3,74.3,30.10,South,170,0.0,9.4,100,0.00,,SKC,0.00,VWS V14.01,2013-07-16 11:34:00,
2013-07-16 07:35:00,74.4,74.4,30.10,South,170,0.0,9.4,100,0.00,,SKC,0.00,VWS V14.01,2013-07-16 11:35:00,
2013-07-16 07:36:00,74.3,74.3,30.11,South,170,0.0,9.4,100,0.00,,SKC,0.00,VWS V14.01,2013-07-16 11:36:00,
2013-07-16 07:38:00,74.3,74.3,30.11,SSE,162,0.0,9.4,100,0.00,,SKC,0.00,VWS V14.01,2013-07-16 11:38:00,
2013-07-16 07:39:00,74.4,74.4,30.11,SSE,162,0.0,9.4,100,0.00,,SKC,0.00,VWS V14.01,2013-07-16 11:39:00,
2013-07-16 07:40:00,74.4,74.4,30.11,SSE,156,0.0,9.4,100,0.00,,SKC,0.00,VWS V14.01,2013-07-16 11:40:00,
2013-07-16 07:41:00,74.4,74.4,30.11,South,173,5.5,9.4,100,0.00,,SKC,0.00,VWS V14.01,2013-07-16 11:41:00,
2013-07-16 07:43:00,74.4,74.4,30.11,North,359,0.9,9.4,100,0.00,,SKC,0.00,VWS V14.01,2013-07-16 11:43:00,
2013-07-16 07:44:00,74.4,74.4,30.12,South,186,5.0,9.7,100,0.00,,SKC,0.00,VWS V14.01,2013-07-16 11:44:00,
2013-07-16 07:46:00,74.4,74.4,30.12,North,359,0.0,9.7,100,0.00,,SKC,0.00,VWS V14.01,2013-07-16 11:46:00,
2013-07-16 07:47:00,74.4,74.4,30.12,South,191,3.9,9.7,100,0.00,,SKC,0.00,VWS V14.01,2013-07-16 11:47:00,
2013-07-16 07:48:00,74.6,74.6,30.12,SSE,165,0.7,9.7,100,0.00,,SKC,0.00,VWS V14.01,2013-07-16 11:48:00,
2013-07-16 07:49:00,74.5,74.5,30.12,SSE,166,4.7,9.7,100,0.00,,SKC,0.00,VWS V14.01,2013-07-16 11:49:00,
2013-07-16 07:51:00,74.6,74.6,30.12,South,174,7.7,9.7,100,0.00,,SKC,0.00,VWS V14.01,2013-07-16 11:51:00,
2013-07-16 07:52:00,74.5,74.5,30.12,SSE,167,4.7,9.7,100,0.00,,SKC,0.00,VWS V14.01,2013-07-16 11:52:00,
2013-07-16 07:53:00,74.5,74.5,30.12,South,172,6.5,10.1,100,0.00,,SKC,0.00,VWS V14.01,2013-07-16 11:53:00,
2013-07-16 07:54:00,74.5,74.5,30.12,South,176,3.7,10.1,100,0.00,,SKC,0.00,VWS V14.01,2013-07-16 11:54:00,
2013-07-16 07:56:00,74.5,74.5,30.12,North,359,0.2,10.1,100,0.00,,SKC,0.00,VWS V14.01,2013-07-16 11:56:00,
2013-07-16 07:57:00,74.6,74.6,30.13,SSE,166,4.9,10.1,100,0.00,,SKC,0.00,VWS V14.01,2013-07-16 11:57:00,
2013-07-16 07:58:00,74.6,74.6,30.13,South,173,4.3,10.1,100,0.00,,SKC,0.00,VWS V14.01,2013-07-16 11:58:00,
2013-07-16 07:59:00,74.7,74.7,30.12,South,173,0.0,10.1,100,0.00,,SKC,0.00,VWS V14.01,2013-07-16 11:59:00,
2013-07-16 08:01:00,74.7,74.7,30.12,South,172,3.0,10.1,100,0.00,,SKC,0.00,VWS V14.01,2013-07-16 12:01:00,
2013-07-16 08:02:00,74.7,74.7,30.12,SSE,163,0.8,10.1,100,0.00,,SKC,0.00,VWS V14.01,2013-07-16 12:02:00,
2013-07-16 08:03:00,74.8,74.8,30.12,South,170,0.0,10.1,100,0.00,,SKC,0.00,VWS V14.01,2013-07-16 12:03:00,
2013-07-16 08:04:00,74.9,74.9,30.12,SSE,165,5.2,10.1,100,0.00,,SKC,0.00,VWS V14.01,2013-07-16 12:04:00,
2013-07-16 08:06:00,75.0,75.0,30.12,North,359,0.0,10.1,100,0.00,,SKC,0.00,VWS V14.01,2013-07-16 12:06:00,
2013-07-16 08:07:00,75.0,75.0,30.12,North,359,0.0,10.1,100,0.00,,SKC,0.00,VWS V14.01,2013-07-16 12:07:00,
2013-07-16 08:08:00,75.1,75.1,30.12,South,172,5.3,10.1,100,0.00,,SKC,0.00,VWS V14.01,2013-07-16 12:08:00,
2013-07-16 08:09:00,75.1,75.1,30.12,North,359,0.4,10.1,100,0.00,,SKC,0.00,VWS V14.01,2013-07-16 12:09:00,
2013-07-16 08:11:00,75.1,75.1,30.12,SSE,152,6.9,10.4,100,0.00,,SKC,0.00,VWS V14.01,2013-07-16 12:11:00,
2013-07-16 08:12:00,75.1,75.1,30.12,SSE,162,0.0,10.4,100,0.00,,SKC,0.00,VWS V14.01,2013-07-16 12:12:00,
2013-07-16 08:13:00,75.1,75.1,30.12,SSE,162,0.0,10.4,100,0.00,,SKC,0.00,VWS V14.01,2013-07-16 12:13:00,
2013-07-16 08:14:00,75.0,75.0,30.12,SSE,162,0.0,10.4,100,0.00,,SKC,0.00,VWS V14.01,2013-07-16 12:14:00,
2013-07-16 08:16:00,75.2,75.2,30.12,SSE,167,0.0,10.4,100,0.00,,SKC,0.00,VWS V14.01,2013-07-16 12:16:00,
2013-07-16 08:17:00,75.2,75.2,30.12,SSE,167,4.9,10.4,100,0.00,,SKC,0.00,VWS V14.01,2013-07-16 12:17:00,
2013-07-16 08:19:00,75.4,75.4,30.12,SSE,155,0.0,10.4,100,0.00,,SKC,0.00,VWS V14.01,2013-07-16 12:19:00,
2013-07-16 08:22:00,75.6,75.6,30.12,South,173,5.0,10.4,100,0.00,,SKC,0.00,VWS V14.01,2013-07-16 12:22:00,
2013-07-16 08:23:00,75.7,75.7,30.12,South,174,4.2,10.4,100,0.00,,SKC,0.00,VWS V14.01,2013-07-16 12:23:00,
2013-07-16 08:24:00,75.9,75.9,30.12,South,174,0.0,10.4,100,0.00,,SKC,0.00,VWS V14.01,2013-07-16 12:24:00,
2013-07-16 08:25:00,75.9,75.9,30.12,South,181,0.0,10.4,100,0.00,,SKC,0.00,VWS V14.01,2013-07-16 12:25:00,
2013-07-16 08:27:00,76.0,76.0,30.12,SSE,156,3.4,10.4,100,0.00,,SKC,0.00,VWS V14.01,2013-07-16 12:27:00,
2013-07-16 08:28:00,76.0,76.0,30.12,SSE,156,0.0,10.4,100,0.00,,SKC,0.00,VWS V14.01,2013-07-16 12:28:00,
2013-07-16 08:29:00,76.0,76.0,30.12,SSW,193,0.0,10.4,100,0.00,,SKC,0.00,VWS V14.01,2013-07-16 12:29:00,
2013-07-16 08:30:00,76.0,76.0,30.13,SSW,193,0.0,10.4,100,0.00,,SKC,0.00,VWS V14.01,2013-07-16 12:30:00,
2013-07-16 08:32:00,76.0,76.0,30.13,South,187,6.1,10.4,100,0.00,,SKC,0.00,VWS V14.01,2013-07-16 12:32:00,
2013-07-16 08:33:00,76.1,76.1,30.13,South,180,4.7,10.4,100,0.00,,SKC,0.00,VWS V14.01,2013-07-16 12:33:00,
2013-07-16 08:34:00,76.2,76.2,30.13,North,359,0.0,10.4,100,0.00,,SKC,0.00,VWS V14.01,2013-07-16 12:34:00,
2013-07-16 08:35:00,76.1,76.1,30.13,North,359,1.0,10.4,100,0.00,,SKC,0.00,VWS V14.01,2013-07-16 12:35:00,
2013-07-16 08:37:00,76.2,76.2,30.13,North,359,0.0,10.4,100,0.00,,SKC,0.00,VWS V14.01,2013-07-16 12:37:00,
2013-07-16 08:38:00,76.2,76.2,30.13,SSW,202,5.2,10.4,100,0.00,,SKC,0.00,VWS V14.01,2013-07-16 12:38:00,
2013-07-16 08:39:00,76.3,76.3,30.13,South,172,6.3,10.4,100,0.00,,SKC,0.00,VWS V14.01,2013-07-16 12:39:00,
2013-07-16 08:40:00,76.2,76.2,30.13,South,172,0.0,10.4,100,0.00,,SKC,0.00,VWS V14.01,2013-07-16 12:40:00,
2013-07-16 08:42:00,76.3,76.3,30.13,South,173,0.0,10.4,100,0.00,,SKC,0.00,VWS V14.01,2013-07-16 12:42:00,
2013-07-16 08:43:00,76.3,76.3,30.13,SE,146,0.0,10.4,100,0.00,,SKC,0.00,VWS V14.01,2013-07-16 12:43:00,
2013-07-16 08:44:00,76.3,76.3,30.13,North,359,0.0,10.4,100,0.00,,SKC,0.00,VWS V14.01,2013-07-16 12:44:00,
2013-07-16 08:45:00,76.3,76.3,30.12,North,359,4.9,10.4,100,0.00,,SKC,0.00,VWS V14.01,2013-07-16 12:45:00,
2013-07-16 08:47:00,76.4,76.4,30.13,SSE,163,0.0,10.4,100,0.00,,SKC,0.00,VWS V14.01,2013-07-16 12:47:00,
2013-07-16 08:48:00,76.4,76.4,30.13,North,359,0.2,10.4,100,0.00,,SKC,0.00,VWS V14.01,2013-07-16 12:48:00,
2013-07-16 08:49:00,76.4,76.4,30.13,SSE,162,6.2,10.4,100,0.00,,SKC,0.00,VWS V14.01,2013-07-16 12:49:00,
2013-07-16 08:50:00,76.4,76.4,30.13,SSE,162,0.0,10.4,100,0.00,,SKC,0.00,VWS V14.01,2013-07-16 12:50:00,
2013-07-16 08:52:00,76.5,76.5,30.12,South,191,0.0,10.4,100,0.00,,SKC,0.00,VWS V14.01,2013-07-16 12:52:00,
2013-07-16 08:53:00,76.6,76.6,30.13,North,359,4.0,10.4,100,0.00,,SKC,0.00,VWS V14.01,2013-07-16 12:53:00,
2013-07-16 08:54:00,76.7,76.7,30.13,South,174,3.9,10.4,100,0.00,,SKC,0.00,VWS V14.01,2013-07-16 12:54:00,
2013-07-16 08:55:00,76.7,76.7,30.13,SSE,159,4.8,10.4,100,0.00,,SKC,0.00,VWS V14.01,2013-07-16 12:55:00,
2013-07-16 08:57:00,76.8,76.8,30.13,SSE,163,6.5,10.4,100,0.00,,SKC,0.00,VWS V14.01,2013-07-16 12:57:00,
2013-07-16 08:58:00,76.8,76.8,30.13,North,359,0.0,10.4,100,0.00,,SKC,0.00,VWS V14.01,2013-07-16 12:58:00,
2013-07-16 09:00:00,76.8,76.8,30.13,SSE,156,13.7,13.7,100,0.00,,SKC,0.00,VWS V14.01,2013-07-16 13:00:00,
2013-07-16 09:02:00,76.7,76.7,30.13,SSW,208,7.9,13.7,100,0.00,,SKC,0.00,VWS V14.01,2013-07-16 13:02:00,
2013-07-16 09:03:00,76.7,76.7,30.13,South,181,0.0,13.7,100,0.00,,SKC,0.00,VWS V14.01,2013-07-16 13:03:00,
2013-07-16 09:05:00,76.8,76.8,30.13,SSW,197,8.2,13.7,100,0.00,,SKC,0.00,VWS V14.01,2013-07-16 13:05:00,
2013-07-16 09:06:00,76.9,76.9,30.13,South,190,1.8,13.7,100,0.00,,SKC,0.00,VWS V14.01,2013-07-16 13:06:00,
2013-07-16 09:07:00,76.9,76.9,30.13,North,359,0.4,13.7,100,0.00,,SKC,0.00,VWS V14.01,2013-07-16 13:07:00,
2013-07-16 09:08:00,76.9,76.9,30.13,North,359,0.0,13.7,100,0.00,,SKC,0.00,VWS V14.01,2013-07-16 13:08:00,
2013-07-16 09:10:00,76.9,76.9,30.13,North,359,0.0,13.7,100,0.00,,SKC,0.00,VWS V14.01,2013-07-16 13:10:00,
2013-07-16 09:11:00,76.9,76.9,30.13,North,359,0.0,13.7,100,0.00,,SKC,0.00,VWS V14.01,2013-07-16 13:11:00,
2013-07-16 09:12:00,77.0,77.0,30.13,North,359,5.0,13.7,100,0.00,,SKC,0.00,VWS V14.01,2013-07-16 13:12:00,
2013-07-16 09:13:00,77.0,77.0,30.13,South,183,0.0,13.7,100,0.00,,SKC,0.00,VWS V14.01,2013-07-16 13:13:00,
2013-07-16 09:15:00,77.0,77.0,30.13,North,359,0.0,13.7,100,0.00,,SKC,0.00,VWS V14.01,2013-07-16 13:15:00,
2013-07-16 09:16:00,77.0,77.0,30.13,North,359,0.0,13.7,100,0.00,,SKC,0.00,VWS V14.01,2013-07-16 13:16:00,
2013-07-16 09:17:00,77.1,77.1,30.13,North,359,0.0,13.7,100,0.00,,SKC,0.00,VWS V14.01,2013-07-16 13:17:00,
2013-07-16 09:18:00,77.2,77.2,30.13,North,359,0.0,13.7,100,0.00,,SKC,0.00,VWS V14.01,2013-07-16 13:18:00,
2013-07-16 09:21:00,77.3,77.3,30.13,North,359,0.0,13.7,100,0.00,,SKC,0.00,VWS V14.01,2013-07-16 13:21:00,
2013-07-16 09:23:00,77.3,77.3,30.13,North,359,0.0,13.7,100,0.00,,SKC,0.00,VWS V14.01,2013-07-16 13:23:00,
2013-07-16 09:24:00,77.4,77.4,30.13,South,169,0.0,13.7,100,0.00,,SKC,0.00,VWS V14.01,2013-07-16 13:24:00,
2013-07-16 09:26:00,77.5,77.5,30.14,North,359,0.0,13.7,100,0.00,,SKC,0.00,VWS V14.01,2013-07-16 13:26:00,
2013-07-16 09:27:00,77.5,77.5,30.14,North,359,0.0,13.7,100,0.00,,SKC,0.00,VWS V14.01,2013-07-16 13:27:00,
2013-07-16 09:28:00,77.7,77.7,30.14,North,359,0.0,13.7,100,0.00,,SKC,0.00,VWS V14.01,2013-07-16 13:28:00,
2013-07-16 09:29:00,77.7,77.7,30.14,North,359,0.0,13.7,100,0.00,,SKC,0.00,VWS V14.01,2013-07-16 13:29:00,
2013-07-16 09:31:00,77.7,77.7,30.13,SSE,159,0.0,13.7,100,0.00,,SKC,0.00,VWS V14.01,2013-07-16 13:31:00,
2013-07-16 09:32:00,77.7,77.7,30.14,SSE,159,0.0,13.7,100,0.00,,SKC,0.00,VWS V14.01,2013-07-16 13:32:00,
2013-07-16 09:33:00,77.5,77.5,30.14,SSE,150,0.0,13.7,100,0.00,,SKC,0.00,VWS V14.01,2013-07-16 13:33:00,
2013-07-16 09:34:00,77.4,77.4,30.14,SSE,150,0.0,13.7,100,0.00,,SKC,0.00,VWS V14.01,2013-07-16 13:34:00,
2013-07-16 09:36:00,77.4,77.3,30.14,North,359,1.6,13.7,100,0.00,,SKC,0.00,VWS V14.01,2013-07-16 13:36:00,
2013-07-16 09:37:00,77.4,77.4,30.14,South,179,3.2,13.7,100,0.00,,SKC,0.00,VWS V14.01,2013-07-16 13:37:00,
2013-07-16 09:38:00,77.3,77.3,30.14,South,172,0.9,15.4,100,0.00,,SKC,0.00,VWS V14.01,2013-07-16 13:38:00,
2013-07-16 09:39:00,77.3,77.3,30.14,North,359,0.2,15.4,100,0.00,,SKC,0.00,VWS V14.01,2013-07-16 13:39:00,
2013-07-16 09:41:00,77.3,77.3,30.14,SSE,167,0.0,15.4,100,0.00,,SKC,0.00,VWS V14.01,2013-07-16 13:41:00,
2013-07-16 09:42:00,77.2,77.2,30.14,SSE,167,0.0,15.4,100,0.00,,SKC,0.00,VWS V14.01,2013-07-16 13:42:00,
2013-07-16 09:43:00,77.2,77.2,30.14,SSE,167,0.0,15.4,100,0.00,,SKC,0.00,VWS V14.01,2013-07-16 13:43:00,
2013-07-16 09:44:00,77.2,77.2,30.14,South,181,3.9,15.4,100,0.00,,SKC,0.00,VWS V14.01,2013-07-16 13:44:00,
2013-07-16 09:47:00,77.3,77.3,30.14,SSE,162,6.1,15.4,100,0.00,,SKC,0.00,VWS V14.01,2013-07-16 13:47:00,
2013-07-16 09:48:00,77.3,77.3,30.14,North,359,0.0,15.4,100,0.00,,SKC,0.00,VWS V14.01,2013-07-16 13:48:00,
2013-07-16 09:49:00,77.4,77.4,30.14,North,359,0.0,15.4,100,0.00,,SKC,0.00,VWS V14.01,2013-07-16 13:49:00,
2013-07-16 09:52:00,77.5,77.5,30.14,South,191,0.0,15.4,100,0.00,,SKC,0.00,VWS V14.01,2013-07-16 13:52:00,
2013-07-16 09:53:00,77.5,77.5,30.14,North,359,0.0,15.4,100,0.00,,SKC,0.00,VWS V14.01,2013-07-16 13:53:00,
2013-07-16 09:54:00,77.5,77.5,30.14,North,359,0.0,15.4,100,0.00,,SKC,0.00,VWS V14.01,2013-07-16 13:54:00,
2013-07-16 09:57:00,77.7,77.7,30.13,South,170,0.0,15.4,100,0.00,,SKC,0.00,VWS V14.01,2013-07-16 13:57:00,
2013-07-16 09:58:00,77.7,77.7,30.14,South,170,0.0,15.4,100,0.00,,SKC,0.00,VWS V14.01,2013-07-16 13:58:00,
2013-07-16 09:59:00,77.7,77.7,30.14,South,170,1.5,15.4,100,0.00,,SKC,0.00,VWS V14.01,2013-07-16 13:59:00,
2013-07-16 10:02:00,77.8,77.8,30.14,North,359,0.0,15.4,100,0.00,,SKC,0.00,VWS V14.01,2013-07-16 14:02:00,
2013-07-16 10:03:00,77.7,77.7,30.14,North,359,0.0,15.4,100,0.00,,SKC,0.00,VWS V14.01,2013-07-16 14:03:00,
2013-07-16 10:04:00,77.8,77.8,30.14,North,359,0.9,15.4,100,0.00,,SKC,0.00,VWS V14.01,2013-07-16 14:04:00,
2013-07-16 10:07:00,77.8,77.8,30.14,North,359,0.0,15.4,100,0.00,,SKC,0.00,VWS V14.01,2013-07-16 14:07:00,
2013-07-16 10:08:00,77.9,77.9,30.13,SSE,163,2.9,15.4,100,0.00,,SKC,0.00,VWS V14.01,2013-07-16 14:08:00,
2013-07-16 10:09:00,77.9,77.9,30.13,North,359,4.8,15.4,100,0.00,,SKC,0.00,VWS V14.01,2013-07-16 14:09:00,
2013-07-16 10:12:00,78.0,78.1,30.14,South,191,3.2,15.4,100,0.00,,SKC,0.00,VWS V14.01,2013-07-16 14:12:00,
2013-07-16 10:13:00,78.2,78.2,30.14,South,174,3.0,15.4,100,0.00,,SKC,0.00,VWS V14.01,2013-07-16 14:13:00,
2013-07-16 10:14:00,78.2,78.2,30.14,South,174,0.0,15.4,100,0.00,,SKC,0.00,VWS V14.01,2013-07-16 14:14:00,
2013-07-16 10:17:00,78.3,78.4,30.14,South,174,0.0,15.4,100,0.00,,SKC,0.00,VWS V14.01,2013-07-16 14:17:00,
2013-07-16 10:18:00,78.4,78.4,30.14,South,186,0.7,15.4,100,0.00,,SKC,0.00,VWS V14.01,2013-07-16 14:18:00,
2013-07-16 10:19:00,78.4,78.4,30.14,South,188,5.2,15.4,100,0.00,,SKC,0.00,VWS V14.01,2013-07-16 14:19:00,
2013-07-16 10:22:00,78.4,78.4,30.14,North,359,0.0,15.4,100,0.00,,SKC,0.00,VWS V14.01,2013-07-16 14:22:00,
2013-07-16 10:23:00,78.7,78.5,30.14,North,359,0.0,15.4,100,0.00,,SKC,0.00,VWS V14.01,2013-07-16 14:23:00,
2013-07-16 10:24:00,78.5,78.5,30.14,North,359,0.0,15.4,100,0.00,,SKC,0.00,VWS V14.01,2013-07-16 14:24:00,
2013-07-16 10:25:00,78.7,78.7,30.14,North,359,0.0,15.4,100,0.00,,SKC,0.00,VWS V14.01,2013-07-16 14:25:00,
2013-07-16 10:27:00,78.8,78.8,30.14,SSE,159,3.0,15.4,100,0.00,,SKC,0.00,VWS V14.01,2013-07-16 14:27:00,
2013-07-16 10:28:00,78.9,78.9,30.15,South,169,0.0,15.4,100,0.00,,SKC,0.00,VWS V14.01,2013-07-16 14:28:00,
2013-07-16 10:29:00,78.9,78.9,30.14,South,169,0.2,15.4,100,0.00,,SKC,0.00,VWS V14.01,2013-07-16 14:29:00,
2013-07-16 10:30:00,78.9,78.9,30.15,North,359,0.0,15.4,100,0.00,,SKC,0.00,VWS V14.01,2013-07-16 14:30:00,
2013-07-16 10:32:00,79.1,79.1,30.15,SSE,153,7.6,15.4,100,0.00,,SKC,0.00,VWS V14.01,2013-07-16 14:32:00,
2013-07-16 10:34:00,79.1,79.1,30.15,South,176,0.0,15.4,100,0.00,,SKC,0.00,VWS V14.01,2013-07-16 14:34:00,
2013-07-16 10:35:00,79.2,79.2,30.15,South,176,0.0,15.4,100,0.00,,SKC,0.00,VWS V14.01,2013-07-16 14:35:00,
2013-07-16 10:37:00,79.7,79.7,30.14,South,170,5.4,15.4,100,0.00,,SKC,0.00,VWS V14.01,2013-07-16 14:37:00,
2013-07-16 10:39:00,79.7,79.7,30.15,SSE,162,4.8,15.4,100,0.00,,SKC,0.00,VWS V14.01,2013-07-16 14:39:00,
2013-07-16 10:40:00,79.8,79.8,30.15,SSW,204,9.1,15.4,100,0.00,,SKC,0.00,VWS V14.01,2013-07-16 14:40:00,
2013-07-16 10:43:00,80.0,80.0,30.15,North,359,0.9,15.4,100,0.00,,SKC,0.00,VWS V14.01,2013-07-16 14:43:00,
2013-07-16 10:44:00,80.0,80.0,30.15,North,359,5.8,15.4,100,0.00,,SKC,0.00,VWS V14.01,2013-07-16 14:44:00,
2013-07-16 10:45:00,80.1,80.1,30.15,North,359,0.0,15.4,100,0.00,,SKC,0.00,VWS V14.01,2013-07-16 14:45:00,
2013-07-16 10:48:00,80.2,80.2,30.15,SSE,153,0.3,15.4,100,0.00,,SKC,0.00,VWS V14.01,2013-07-16 14:48:00,
2013-07-16 10:49:00,80.1,80.1,30.15,SSE,158,0.0,15.4,100,0.00,,SKC,0.00,VWS V14.01,2013-07-16 14:49:00,
2013-07-16 10:50:00,80.1,80.1,30.15,SSE,158,0.0,15.4,100,0.00,,SKC,0.00,VWS V14.01,2013-07-16 14:50:00,
2013-07-16 10:53:00,80.1,80.1,30.15,North,359,0.0,15.4,100,0.00,,SKC,0.00,VWS V14.01,2013-07-16 14:53:00,
2013-07-16 10:54:00,80.1,80.1,30.15,North,359,0.6,15.4,100,0.00,,SKC,0.00,VWS V14.01,2013-07-16 14:54:00,
2013-07-16 10:55:00,80.0,80.0,30.15,North,359,5.9,15.4,100,0.00,,SKC,0.00,VWS V14.01,2013-07-16 14:55:00,
2013-07-16 10:58:00,80.0,80.0,30.15,SSE,150,8.8,15.4,100,0.00,,SKC,0.00,VWS V14.01,2013-07-16 14:58:00,
2013-07-16 10:59:00,80.1,80.1,30.15,SSE,160,9.4,15.4,100,0.00,,SKC,0.00,VWS V14.01,2013-07-16 14:59:00,
2013-07-16 11:00:00,80.1,80.1,30.15,SSE,155,0.0,15.4,100,0.00,,SKC,0.00,VWS V14.01,2013-07-16 15:00:00,
2013-07-16 11:01:00,80.2,80.2,30.14,SSE,159,2.3,15.4,100,0.00,,SKC,0.00,VWS V14.01,2013-07-16 15:01:00,
2013-07-16 11:03:00,80.2,80.2,30.15,SSW,193,0.0,15.4,100,0.00,,SKC,0.00,VWS V14.01,2013-07-16 15:03:00,
2013-07-16 11:04:00,80.3,80.3,30.15,North,359,9.1,15.4,100,0.00,,SKC,0.00,VWS V14.01,2013-07-16 15:04:00,
2013-07-16 11:05:00,80.2,80.1,30.15,South,173,11.2,15.4,100,0.00,,SKC,0.00,VWS V14.01,2013-07-16 15:05:00,
2013-07-16 11:06:00,80.3,80.2,30.15,North,359,0.4,15.4,100,0.00,,SKC,0.00,VWS V14.01,2013-07-16 15:06:00,
2013-07-16 11:08:00,80.3,80.2,30.15,SSE,156,0.0,15.4,100,0.00,,SKC,0.00,VWS V14.01,2013-07-16 15:08:00,
2013-07-16 11:09:00,80.5,80.3,30.15,South,177,0.0,15.4,100,0.00,,SKC,0.00,VWS V14.01,2013-07-16 15:09:00,
2013-07-16 11:10:00,80.5,80.4,30.15,South,174,0.3,15.4,100,0.00,,SKC,0.00,VWS V14.01,2013-07-16 15:10:00,
2013-07-16 11:11:00,80.4,80.3,30.15,SSE,150,9.7,15.4,100,0.00,,SKC,0.00,VWS V14.01,2013-07-16 15:11:00,
2013-07-16 11:13:00,80.8,80.5,30.15,South,184,3.9,15.4,99,0.00,,SKC,0.00,VWS V14.01,2013-07-16 15:13:00,
2013-07-16 11:15:00,81.0,80.5,30.15,SSE,155,0.0,15.4,99,0.00,,SKC,0.00,VWS V14.01,2013-07-16 15:15:00,
2013-07-16 11:16:00,81.1,80.8,30.15,South,176,0.0,15.4,99,0.00,,SKC,0.00,VWS V14.01,2013-07-16 15:16:00,
2013-07-16 11:17:00,81.0,80.7,30.15,SSE,158,7.8,15.4,99,0.00,,SKC,0.00,VWS V14.01,2013-07-16 15:17:00,
2013-07-16 11:18:00,81.1,80.6,30.14,SSE,150,0.0,15.4,98,0.00,,SKC,0.00,VWS V14.01,2013-07-16 15:18:00,
2013-07-16 11:20:00,81.4,80.9,30.14,North,359,4.3,15.4,98,0.00,,SKC,0.00,VWS V14.01,2013-07-16 15:20:00,
2013-07-16 11:21:00,81.4,81.0,30.14,South,172,4.0,15.4,99,0.00,,SKC,0.00,VWS V14.01,2013-07-16 15:21:00,
2013-07-16 11:22:00,81.6,81.2,30.14,South,181,0.0,15.4,99,0.00,,SKC,0.00,VWS V14.01,2013-07-16 15:22:00,
2013-07-16 11:23:00,81.7,81.1,30.14,SSE,167,5.8,15.4,98,0.00,,SKC,0.00,VWS V14.01,2013-07-16 15:23:00,
2013-07-16 11:25:00,82.1,81.6,30.14,South,181,8.0,15.4,98,0.00,,SKC,0.00,VWS V14.01,2013-07-16 15:25:00,
2013-07-16 11:26:00,82.1,81.4,30.14,North,359,0.0,15.4,98,0.00,,SKC,0.00,VWS V14.01,2013-07-16 15:26:00,
2013-07-16 11:27:00,82.1,81.4,30.14,North,359,0.6,15.4,98,0.00,,SKC,0.00,VWS V14.01,2013-07-16 15:27:00,
2013-07-16 11:28:00,82.2,81.5,30.14,SSE,165,5.7,15.4,98,0.00,,SKC,0.00,VWS V14.01,2013-07-16 15:28:00,
2013-07-16 11:30:00,82.3,81.4,30.14,North,359,8.3,15.4,97,0.00,,SKC,0.00,VWS V14.01,2013-07-16 15:30:00,
2013-07-16 11:31:00,82.4,81.5,30.13,SSE,156,2.2,15.4,97,0.00,,SKC,0.00,VWS V14.01,2013-07-16 15:31:00,
2013-07-16 11:32:00,82.4,81.5,30.13,South,173,9.0,15.4,97,0.00,,SKC,0.00,VWS V14.01,2013-07-16 15:32:00,
2013-07-16 11:33:00,82.4,81.3,30.14,SSE,158,4.3,15.4,96,0.00,,SKC,0.00,VWS V14.01,2013-07-16 15:33:00,
2013-07-16 11:35:00,82.5,81.4,30.14,South,174,9.3,15.4,96,0.00,,SKC,0.00,VWS V14.01,2013-07-16 15:35:00,
2013-07-16 11:36:00,82.7,81.6,30.14,South,169,4.9,15.4,97,0.00,,SKC,0.00,VWS V14.01,2013-07-16 15:36:00,
2013-07-16 11:37:00,82.7,81.5,30.14,South,186,4.1,15.4,96,0.00,,SKC,0.00,VWS V14.01,2013-07-16 15:37:00,
2013-07-16 11:38:00,82.7,81.5,30.14,North,359,0.0,15.4,96,0.00,,SKC,0.00,VWS V14.01,2013-07-16 15:38:00,
2013-07-16 11:40:00,82.8,81.6,30.14,South,186,0.3,15.4,96,0.00,,SKC,0.00,VWS V14.01,2013-07-16 15:40:00,
2013-07-16 11:41:00,82.9,81.6,30.14,North,359,0.0,15.4,96,0.00,,SKC,0.00,VWS V14.01,2013-07-16 15:41:00,
2013-07-16 11:42:00,82.8,81.5,30.14,South,184,5.4,15.4,96,0.00,,SKC,0.00,VWS V14.01,2013-07-16 15:42:00,
2013-07-16 11:44:00,83.0,81.7,30.15,South,177,0.0,15.4,96,0.00,,SKC,0.00,VWS V14.01,2013-07-16 15:44:00,
2013-07-16 11:45:00,83.0,81.7,30.15,South,174,4.2,15.4,96,0.00,,SKC,0.00,VWS V14.01,2013-07-16 15:45:00,
2013-07-16 11:46:00,82.8,81.5,30.15,SSE,167,0.0,15.4,96,0.00,,SKC,0.00,VWS V14.01,2013-07-16 15:46:00,
2013-07-16 11:47:00,82.8,81.5,30.15,SSE,167,0.0,15.4,96,0.00,,SKC,0.00,VWS V14.01,2013-07-16 15:47:00,
2013-07-16 11:49:00,82.8,81.3,30.15,SSE,155,2.1,15.4,96,0.00,,SKC,0.00,VWS V14.01,2013-07-16 15:49:00,
2013-07-16 11:50:00,82.6,81.3,30.15,North,359,0.4,15.4,96,0.00,,SKC,0.00,VWS V14.01,2013-07-16 15:50:00,
2013-07-16 11:51:00,82.4,81.2,30.15,North,359,0.0,15.4,96,0.00,,SKC,0.00,VWS V14.01,2013-07-16 15:51:00,
2013-07-16 11:52:00,82.5,81.4,30.15,South,174,8.6,15.4,96,0.00,,SKC,0.00,VWS V14.01,2013-07-16 15:52:00,
2013-07-16 11:54:00,82.4,81.2,30.15,North,359,0.0,15.4,96,0.00,,SKC,0.00,VWS V14.01,2013-07-16 15:54:00,
2013-07-16 11:55:00,82.2,81.1,30.15,South,174,12.0,15.4,97,0.00,,SKC,0.00,VWS V14.01,2013-07-16 15:55:00,
2013-07-16 11:56:00,82.0,80.9,30.15,North,359,7.0,15.4,96,0.00,,SKC,0.00,VWS V14.01,2013-07-16 15:56:00,
2013-07-16 11:57:00,82.0,81.0,30.15,South,191,6.9,15.4,97,0.00,,SKC,0.00,VWS V14.01,2013-07-16 15:57:00,
2013-07-16 12:00:00,82.0,81.1,30.15,North,359,0.7,15.4,97,0.00,,SKC,0.00,VWS V14.01,2013-07-16 16:00:00,
2013-07-16 12:02:00,81.9,81.0,30.15,SSE,167,0.0,15.4,97,0.00,,SKC,0.00,VWS V14.01,2013-07-16 16:02:00,
2013-07-16 12:05:00,81.9,81.2,30.15,SSE,163,3.8,15.4,98,0.00,,SKC,0.00,VWS V14.01,2013-07-16 16:05:00,
2013-07-16 12:06:00,81.8,81.1,30.15,North,359,0.4,15.4,98,0.00,,SKC,0.00,VWS V14.01,2013-07-16 16:06:00,
2013-07-16 12:07:00,81.6,80.9,30.15,North,359,0.0,15.4,98,0.00,,SKC,0.00,VWS V14.01,2013-07-16 16:07:00,
2013-07-16 12:08:00,81.6,80.9,30.15,South,184,11.2,15.4,98,0.00,,SKC,0.00,VWS V14.01,2013-07-16 16:08:00,
2013-07-16 12:10:00,81.5,81.0,30.15,South,176,5.9,18.3,98,0.00,,SKC,0.00,VWS V14.01,2013-07-16 16:10:00,
2013-07-16 12:11:00,81.5,81.0,30.15,South,186,3.4,18.3,98,0.00,,SKC,0.00,VWS V14.01,2013-07-16 16:11:00,
2013-07-16 12:12:00,81.4,80.9,30.15,South,172,7.0,18.3,98,0.00,,SKC,0.00,VWS V14.01,2013-07-16 16:12:00,
2013-07-16 12:13:00,81.5,81.1,30.15,South,181,0.0,18.3,99,0.00,,SKC,0.00,VWS V14.01,2013-07-16 16:13:00,
2013-07-16 12:15:00,81.3,81.0,30.15,North,359,0.0,18.3,99,0.00,,SKC,0.00,VWS V14.01,2013-07-16 16:15:00,
2013-07-16 12:16:00,81.3,81.0,30.15,North,359,0.0,18.3,99,0.00,,SKC,0.00,VWS V14.01,2013-07-16 16:16:00,
2013-07-16 12:17:00,81.2,80.9,30.15,North,359,0.0,18.3,99,0.00,,SKC,0.00,VWS V14.01,2013-07-16 16:17:00,
2013-07-16 12:18:00,81.2,81.1,30.15,SSE,165,14.3,18.3,99,0.00,,SKC,0.00,VWS V14.01,2013-07-16 16:18:00,
2013-07-16 12:20:00,81.2,80.9,30.15,North,359,10.9,18.3,99,0.00,,SKC,0.00,VWS V14.01,2013-07-16 16:20:00,
2013-07-16 12:21:00,81.3,81.0,30.15,North,359,1.9,18.3,99,0.00,,SKC,0.00,VWS V14.01,2013-07-16 16:21:00,
2013-07-16 12:22:00,81.4,81.0,30.15,SSE,159,1.4,18.3,99,0.00,,SKC,0.00,VWS V14.01,2013-07-16 16:22:00,
2013-07-16 12:23:00,81.5,81.0,30.15,North,359,2.1,18.3,98,0.00,,SKC,0.00,VWS V14.01,2013-07-16 16:23:00,
2013-07-16 12:26:00,81.9,81.2,30.15,North,359,5.3,20.3,98,0.00,,SKC,0.00,VWS V14.01,2013-07-16 16:26:00,
2013-07-16 12:27:00,82.2,81.5,30.15,North,359,8.9,20.3,98,0.00,,SKC,0.00,VWS V14.01,2013-07-16 16:27:00,
2013-07-16 12:28:00,82.2,81.5,30.15,South,181,1.9,20.3,98,0.00,,SKC,0.00,VWS V14.01,2013-07-16 16:28:00,
2013-07-16 12:31:00,82.4,81.6,30.15,SSW,194,1.3,20.5,97,0.00,,SKC,0.00,VWS V14.01,2013-07-16 16:31:00,
2013-07-16 12:33:00,82.1,81.4,30.15,North,359,1.4,20.5,98,0.00,,SKC,0.00,VWS V14.01,2013-07-16 16:33:00,
2013-07-16 12:36:00,82.2,81.9,30.15,North,359,1.6,20.5,99,0.00,,SKC,0.00,VWS V14.01,2013-07-16 16:36:00,
2013-07-16 12:38:00,82.3,82.1,30.15,South,181,0.6,20.5,99,0.00,,SKC,0.00,VWS V14.01,2013-07-16 16:38:00,
2013-07-16 12:41:00,82.5,82.1,30.15,South,181,6.5,20.5,99,0.00,,SKC,0.00,VWS V14.01,2013-07-16 16:41:00,
2013-07-16 12:43:00,82.8,82.1,30.14,SSE,159,0.0,20.5,98,0.00,,SKC,0.00,VWS V14.01,2013-07-16 16:43:00,
2013-07-16 12:46:00,82.9,82.1,30.15,North,359,11.0,20.5,97,0.00,,SKC,0.00,VWS V14.01,2013-07-16 16:46:00,
2013-07-16 12:47:00,82.9,82.0,30.15,North,359,9.2,20.5,97,0.00,,SKC,0.00,VWS V14.01,2013-07-16 16:47:00,
2013-07-16 12:48:00,82.6,81.8,30.15,South,176,2.1,20.5,97,0.00,,SKC,0.00,VWS V14.01,2013-07-16 16:48:00,
2013-07-16 12:51:00,82.5,81.7,30.15,South,176,10.4,20.5,98,0.00,,SKC,0.00,VWS V14.01,2013-07-16 16:51:00,
2013-07-16 12:52:00,82.5,81.8,30.15,SSE,162,4.5,20.5,98,0.00,,SKC,0.00,VWS V14.01,2013-07-16 16:52:00,
2013-07-16 12:53:00,82.6,81.9,30.15,SSE,158,10.3,20.5,98,0.00,,SKC,0.00,VWS V14.01,2013-07-16 16:53:00,
2013-07-16 12:56:00,82.4,81.8,30.15,SSW,200,5.6,20.5,98,0.00,,SKC,0.00,VWS V14.01,2013-07-16 16:56:00,
2013-07-16 12:58:00,82.4,81.7,30.15,North,359,0.0,20.5,98,0.00,,SKC,0.00,VWS V14.01,2013-07-16 16:58:00,
2013-07-16 12:59:00,82.4,81.8,30.15,North,359,0.4,20.5,98,0.00,,SKC,0.00,VWS V14.01,2013-07-16 16:59:00,
2013-07-16 13:01:00,82.4,81.9,30.15,North,359,0.0,20.5,98,0.00,,SKC,0.00,VWS V14.01,2013-07-16 17:01:00,
2013-07-16 13:03:00,82.4,81.8,30.15,South,180,12.6,20.5,98,0.00,,SKC,0.00,VWS V14.01,2013-07-16 17:03:00,
2013-07-16 13:04:00,82.4,81.8,30.14,South,169,10.7,20.5,98,0.00,,SKC,0.00,VWS V14.01,2013-07-16 17:04:00,
2013-07-16 13:06:00,82.2,81.7,30.15,SSW,193,9.4,20.5,98,0.00,,SKC,0.00,VWS V14.01,2013-07-16 17:06:00,
2013-07-16 13:08:00,81.8,81.6,30.15,SSW,210,0.0,20.5,99,0.00,,SKC,0.00,VWS V14.01,2013-07-16 17:08:00,
2013-07-16 13:09:00,81.8,81.6,30.15,North,359,8.8,20.5,99,0.01,,SKC,0.01,VWS V14.01,2013-07-16 17:09:00,
2013-07-16 13:11:00,81.6,81.4,30.15,South,176,8.3,20.5,99,0.01,,SKC,0.01,VWS V14.01,2013-07-16 17:11:00,
2013-07-16 13:13:00,81.6,81.6,30.15,SSE,156,9.7,20.5,100,0.01,,SKC,0.01,VWS V14.01,2013-07-16 17:13:00,
2013-07-16 13:14:00,81.6,81.6,30.15,South,186,10.9,20.5,100,0.01,,SKC,0.01,VWS V14.01,2013-07-16 17:14:00,
2013-07-16 13:16:00,81.4,81.4,30.15,North,359,12.1,20.5,100,0.01,,SKC,0.01,VWS V14.01,2013-07-16 17:16:00,
2013-07-16 13:18:00,81.4,81.2,30.15,North,359,0.0,20.5,100,0.01,,SKC,0.01,VWS V14.01,2013-07-16 17:18:00,
2013-07-16 13:19:00,81.4,81.2,30.15,North,359,18.7,20.5,100,0.01,,SKC,0.01,VWS V14.01,2013-07-16 17:19:00,
2013-07-16 13:21:00,81.2,81.0,30.15,North,359,14.6,20.5,99,0.01,,SKC,0.01,VWS V14.01,2013-07-16 17:21:00,
2013-07-16 13:24:00,80.7,80.3,30.15,SSW,198,8.4,20.5,99,0.01,,SKC,0.01,VWS V14.01,2013-07-16 17:24:00,
2013-07-16 13:26:00,80.9,80.7,30.15,SSW,193,0.7,20.5,99,0.01,,SKC,0.01,VWS V14.01,2013-07-16 17:26:00,
2013-07-16 13:29:00,81.0,80.6,30.15,SSW,200,3.4,20.5,99,0.01,,SKC,0.01,VWS V14.01,2013-07-16 17:29:00,
2013-07-16 13:30:00,80.9,80.5,30.15,North,359,1.4,20.5,99,0.01,,SKC,0.01,VWS V14.01,2013-07-16 17:30:00,
2013-07-16 13:31:00,80.7,80.3,30.15,South,176,6.2,20.5,99,0.01,,SKC,0.01,VWS V14.01,2013-07-16 17:31:00,
2013-07-16 13:34:00,80.4,80.1,30.15,South,179,6.4,20.5,99,0.01,,SKC,0.01,VWS V14.01,2013-07-16 17:34:00,
2013-07-16 13:35:00,80.4,80.2,30.15,South,181,0.3,20.5,99,0.01,,SKC,0.01,VWS V14.01,2013-07-16 17:35:00,
2013-07-16 13:37:00,80.4,80.0,30.15,South,179,9.1,20.5,99,0.01,,SKC,0.01,VWS V14.01,2013-07-16 17:37:00,
2013-07-16 13:39:00,80.5,80.3,30.15,SSW,195,0.2,20.5,99,0.01,,SKC,0.01,VWS V14.01,2013-07-16 17:39:00,
2013-07-16 13:40:00,80.6,80.5,30.15,SSE,162,14.5,20.5,100,0.01,,SKC,0.01,VWS V14.01,2013-07-16 17:40:00,
2013-07-16 13:42:00,80.5,80.6,30.14,SSE,167,1.6,20.5,100,0.01,,SKC,0.01,VWS V14.01,2013-07-16 17:42:00,
2013-07-16 13:44:00,80.5,80.5,30.15,SSE,163,9.6,20.5,100,0.01,,SKC,0.01,VWS V14.01,2013-07-16 17:44:00,
2013-07-16 13:45:00,80.5,80.5,30.15,South,172,12.0,20.5,100,0.01,,SKC,0.01,VWS V14.01,2013-07-16 17:45:00,
2013-07-16 13:47:00,80.6,80.6,30.15,South,180,11.2,20.5,100,0.01,,SKC,0.01,VWS V14.01,2013-07-16 17:47:00,
2013-07-16 13:49:00,80.6,80.6,30.15,North,359,1.1,20.5,100,0.01,,SKC,0.01,VWS V14.01,2013-07-16 17:49:00,
2013-07-16 13:50:00,80.5,80.5,30.15,North,359,1.1,20.5,100,0.01,,SKC,0.01,VWS V14.01,2013-07-16 17:50:00,
2013-07-16 13:52:00,80.4,80.4,30.15,North,359,6.6,20.5,100,0.01,,SKC,0.01,VWS V14.01,2013-07-16 17:52:00,
2013-07-16 13:55:00,80.4,80.4,30.15,SSE,167,4.3,20.5,100,0.01,,SKC,0.01,VWS V14.01,2013-07-16 17:55:00,
2013-07-16 13:57:00,80.7,80.7,30.15,North,359,0.0,20.5,100,0.01,,SKC,0.01,VWS V14.01,2013-07-16 17:57:00,
2013-07-16 14:00:00,80.6,80.6,30.15,North,359,1.0,20.5,100,0.01,,SKC,0.01,VWS V14.01,2013-07-16 18:00:00,
2013-07-16 14:01:00,80.6,80.6,30.14,South,188,4.7,20.5,100,0.01,,SKC,0.01,VWS V14.01,2013-07-16 18:01:00,
2013-07-16 14:02:00,80.6,80.6,30.15,SSW,194,3.6,20.5,100,0.01,,SKC,0.01,VWS V14.01,2013-07-16 18:02:00,
2013-07-16 14:05:00,80.5,80.6,30.15,South,174,3.7,20.5,100,0.01,,SKC,0.01,VWS V14.01,2013-07-16 18:05:00,
2013-07-16 14:06:00,80.7,80.7,30.14,South,187,10.3,20.5,100,0.01,,SKC,0.01,VWS V14.01,2013-07-16 18:06:00,
2013-07-16 14:07:00,80.5,80.3,30.14,SSW,195,5.4,20.5,99,0.01,,SKC,0.01,VWS V14.01,2013-07-16 18:07:00,
2013-07-16 14:10:00,80.4,80.1,30.15,North,359,0.7,20.5,99,0.01,,SKC,0.01,VWS V14.01,2013-07-16 18:10:00,
2013-07-16 14:11:00,80.3,79.8,30.15,North,359,0.0,20.5,98,0.01,,SKC,0.01,VWS V14.01,2013-07-16 18:11:00,
2013-07-16 14:12:00,80.5,79.9,30.14,North,359,3.6,20.5,98,0.01,,SKC,0.01,VWS V14.01,2013-07-16 18:12:00,
2013-07-16 14:15:00,80.3,79.7,30.14,South,174,4.7,20.5,98,0.01,,SKC,0.01,VWS V14.01,2013-07-16 18:15:00,
2013-07-16 14:16:00,80.2,79.7,30.14,South,177,8.9,20.5,98,0.01,,SKC,0.01,VWS V14.01,2013-07-16 18:16:00,
2013-07-16 14:17:00,80.2,79.7,30.14,South,173,8.8,20.5,98,0.01,,SKC,0.01,VWS V14.01,2013-07-16 18:17:00,
2013-07-16 14:20:00,80.2,79.9,30.14,South,191,7.7,20.5,99,0.01,,SKC,0.01,VWS V14.01,2013-07-16 18:20:00,
2013-07-16 14:21:00,80.1,79.9,30.14,SSE,162,6.2,20.5,99,0.01,,SKC,0.01,VWS V14.01,2013-07-16 18:21:00,
2013-07-16 14:22:00,80.2,80.0,30.14,South,181,7.0,20.5,99,0.01,,SKC,0.01,VWS V14.01,2013-07-16 18:22:00,
2013-07-16 14:25:00,80.1,80.0,30.14,SSW,193,7.3,20.5,100,0.01,,SKC,0.01,VWS V14.01,2013-07-16 18:25:00,
2013-07-16 14:26:00,80.1,79.9,30.14,SSE,166,0.7,20.5,99,0.01,,SKC,0.01,VWS V14.01,2013-07-16 18:26:00,
2013-07-16 14:27:00,80.1,79.9,30.14,North,359,0.0,20.5,99,0.01,,SKC,0.01,VWS V14.01,2013-07-16 18:27:00,
2013-07-16 14:30:00,80.0,79.7,30.15,North,359,13.5,20.5,99,0.01,,SKC,0.01,VWS V14.01,2013-07-16 18:30:00,
2013-07-16 14:31:00,80.0,79.7,30.15,North,359,1.1,20.5,99,0.01,,SKC,0.01,VWS V14.01,2013-07-16 18:31:00,
2013-07-16 14:32:00,80.0,79.8,30.14,North,359,0.0,20.5,99,0.01,,SKC,0.01,VWS V14.01,2013-07-16 18:32:00,
2013-07-16 14:36:00,79.8,79.8,30.15,North,359,13.6,20.5,100,0.01,,SKC,0.01,VWS V14.01,2013-07-16 18:36:00,
2013-07-16 14:37:00,79.7,79.7,30.15,North,359,8.5,20.5,100,0.01,,SKC,0.01,VWS V14.01,2013-07-16 18:37:00,
2013-07-16 14:41:00,79.9,79.3,30.14,SSE,167,0.6,20.5,98,0.01,,SKC,0.01,VWS V14.01,2013-07-16 18:41:00,
2013-07-16 14:42:00,80.1,79.5,30.14,North,359,3.1,20.5,98,0.01,,SKC,0.01,VWS V14.01,2013-07-16 18:42:00,
2013-07-16 14:46:00,80.3,80.0,30.14,South,188,4.9,20.5,99,0.01,,SKC,0.01,VWS V14.01,2013-07-16 18:46:00,
2013-07-16 14:47:00,80.3,80.0,30.14,SSW,201,4.0,20.5,99,0.01,,SKC,0.01,VWS V14.01,2013-07-16 18:47:00,
2013-07-16 14:51:00,80.4,80.1,30.14,South,169,8.5,20.5,99,0.01,,SKC,0.01,VWS V14.01,2013-07-16 18:51:00,
2013-07-16 14:52:00,80.4,80.2,30.14,South,169,10.5,20.5,99,0.01,,SKC,0.01,VWS V14.01,2013-07-16 18:52:00,
2013-07-16 14:53:00,80.4,80.3,30.14,South,170,2.4,20.5,100,0.01,,SKC,0.01,VWS V14.01,2013-07-16 18:53:00,
2013-07-16 14:56:00,80.4,80.4,30.14,South,170,10.9,20.5,100,0.01,,SKC,0.01,VWS V14.01,2013-07-16 18:56:00,
2013-07-16 14:57:00,80.4,80.4,30.14,SSW,198,2.4,20.5,100,0.01,,SKC,0.01,VWS V14.01,2013-07-16 18:57:00,
2013-07-16 14:58:00,80.4,80.3,30.14,South,169,11.3,20.5,100,0.01,,SKC,0.01,VWS V14.01,2013-07-16 18:58:00,
2013-07-16 15:02:00,80.2,80.2,30.14,South,176,7.5,20.5,100,0.01,,SKC,0.01,VWS V14.01,2013-07-16 19:02:00,
2013-07-16 15:03:00,80.2,80.2,30.14,SSE,163,9.0,20.5,100,0.01,,SKC,0.01,VWS V14.01,2013-07-16 19:03:00,
2013-07-16 15:07:00,80.2,80.2,30.15,SSE,158,10.1,20.5,100,0.01,,SKC,0.01,VWS V14.01,2013-07-16 19:07:00,
2013-07-16 15:08:00,80.2,80.2,30.15,South,170,8.0,20.5,100,0.01,,SKC,0.01,VWS V14.01,2013-07-16 19:08:00,
2013-07-16 15:12:00,80.2,80.2,30.15,SSE,163,7.1,20.5,100,0.01,,SKC,0.01,VWS V14.01,2013-07-16 19:12:00,
2013-07-16 15:13:00,80.2,80.2,30.15,North,359,9.5,20.5,100,0.01,,SKC,0.01,VWS V14.01,2013-07-16 19:13:00,
2013-07-16 15:14:00,80.1,80.1,30.15,SSE,155,12.1,20.5,100,0.01,,SKC,0.01,VWS V14.01,2013-07-16 19:14:00,
2013-07-16 15:17:00,80.0,79.9,30.15,SW,215,11.9,20.5,100,0.01,,SKC,0.01,VWS V14.01,2013-07-16 19:17:00,
2013-07-16 15:18:00,79.9,79.9,30.15,North,359,9.8,20.5,100,0.01,,SKC,0.01,VWS V14.01,2013-07-16 19:18:00,
2013-07-16 15:19:00,79.9,79.9,30.15,SE,139,10.3,20.5,100,0.01,,SKC,0.01,VWS V14.01,2013-07-16 19:19:00,
2013-07-16 15:22:00,79.7,79.7,30.15,South,170,7.5,20.5,100,0.01,,SKC,0.01,VWS V14.01,2013-07-16 19:22:00,
2013-07-16 15:23:00,79.7,79.7,30.15,North,359,2.4,20.5,100,0.01,,SKC,0.01,VWS V14.01,2013-07-16 19:23:00,
2013-07-16 15:24:00,79.3,79.3,30.15,South,179,8.6,25.7,100,0.01,,SKC,0.01,VWS V14.01,2013-07-16 19:24:00,
2013-07-16 15:27:00,78.8,78.8,30.14,SE,146,8.0,25.7,100,0.01,,SKC,0.01,VWS V14.01,2013-07-16 19:27:00,
2013-07-16 15:28:00,78.7,78.7,30.15,SSE,166,21.6,25.7,100,0.01,,SKC,0.01,VWS V14.01,2013-07-16 19:28:00,
2013-07-16 15:29:00,78.5,78.5,30.15,SE,146,0.0,25.7,100,0.01,,SKC,0.01,VWS V14.01,2013-07-16 19:29:00,
2013-07-16 15:32:00,78.3,78.3,30.15,SSW,211,6.5,25.7,100,0.01,,SKC,0.01,VWS V14.01,2013-07-16 19:32:00,
2013-07-16 15:33:00,78.2,78.2,30.15,North,359,0.6,25.7,100,0.01,,SKC,0.01,VWS V14.01,2013-07-16 19:33:00,
2013-07-16 15:34:00,78.0,78.0,30.15,North,359,0.2,25.7,100,0.01,,SKC,0.01,VWS V14.01,2013-07-16 19:34:00,
2013-07-16 15:38:00,77.4,77.4,30.15,South,170,7.3,25.7,100,0.01,,SKC,0.01,VWS V14.01,2013-07-16 19:38:00,
2013-07-16 15:39:00,77.3,77.3,30.15,SSE,163,8.6,25.7,100,0.01,,SKC,0.01,VWS V14.01,2013-07-16 19:39:00,
2013-07-16 15:43:00,77.1,77.1,30.14,SSE,149,9.4,25.7,100,0.01,,SKC,0.01,VWS V14.01,2013-07-16 19:43:00,
2013-07-16 15:44:00,77.0,77.0,30.14,North,359,1.2,25.7,100,0.01,,SKC,0.01,VWS V14.01,2013-07-16 19:44:00,
2013-07-16 15:48:00,76.9,76.9,30.14,SSE,162,7.8,25.7,100,0.01,,SKC,0.01,VWS V14.01,2013-07-16 19:48:00,
2013-07-16 15:49:00,76.9,76.9,30.14,South,183,0.3,25.7,100,0.01,,SKC,0.01,VWS V14.01,2013-07-16 19:49:00,
2013-07-16 15:53:00,77.2,77.2,30.13,North,359,10.7,25.7,100,0.01,,SKC,0.01,VWS V14.01,2013-07-16 19:53:00,
2013-07-16 15:54:00,77.3,77.3,30.13,SSW,205,2.2,25.7,100,0.01,,SKC,0.01,VWS V14.01,2013-07-16 19:54:00,
2013-07-16 15:55:00,77.5,77.5,30.13,SSE,163,0.8,25.7,100,0.01,,SKC,0.01,VWS V14.01,2013-07-16 19:55:00,
2013-07-16 15:58:00,78.1,78.1,30.13,South,183,14.5,25.7,100,0.01,,SKC,0.01,VWS V14.01,2013-07-16 19:58:00,
2013-07-16 15:59:00,78.2,78.2,30.13,SW,219,8.5,25.7,100,0.01,,SKC,0.01,VWS V14.01,2013-07-16 19:59:00,
2013-07-16 16:00:00,78.3,78.3,30.13,SSE,167,7.8,25.7,100,0.01,,SKC,0.01,VWS V14.01,2013-07-16 20:00:00,
2013-07-16 16:03:00,78.8,78.8,30.13,North,359,4.4,25.7,100,0.01,,SKC,0.01,VWS V14.01,2013-07-16 20:03:00,
2013-07-16 16:04:00,78.8,78.8,30.13,SW,214,5.9,25.7,100,0.01,,SKC,0.01,VWS V14.01,2013-07-16 20:04:00,
2013-07-16 16:05:00,78.9,78.9,30.13,South,169,9.7,25.7,100,0.01,,SKC,0.01,VWS V14.01,2013-07-16 20:05:00,
2013-07-16 16:08:00,79.1,79.1,30.13,SSW,197,1.2,25.7,100,0.01,,SKC,0.01,VWS V14.01,2013-07-16 20:08:00,
2013-07-16 16:09:00,79.2,79.2,30.13,SSW,200,6.2,25.7,100,0.01,,SKC,0.01,VWS V14.01,2013-07-16 20:09:00,
2013-07-16 16:10:00,79.3,79.3,30.13,North,359,1.5,25.7,100,0.01,,SKC,0.01,VWS V14.01,2013-07-16 20:10:00,
2013-07-16 16:13:00,79.5,79.5,30.14,South,169,4.9,25.7,100,0.01,,SKC,0.01,VWS V14.01,2013-07-16 20:13:00,
2013-07-16 16:14:00,79.5,79.5,30.14,South,169,6.6,25.7,100,0.01,,SKC,0.01,VWS V14.01,2013-07-16 20:14:00,
2013-07-16 16:15:00,79.7,79.7,30.14,SSW,212,6.5,25.7,100,0.01,,SKC,0.01,VWS V14.01,2013-07-16 20:15:00,
2013-07-16 16:18:00,79.8,79.8,30.14,North,359,2.3,25.7,100,0.01,,SKC,0.01,VWS V14.01,2013-07-16 20:18:00,
2013-07-16 16:19:00,79.8,79.8,30.13,SSW,200,8.6,25.7,100,0.01,,SKC,0.01,VWS V14.01,2013-07-16 20:19:00,
2013-07-16 16:20:00,79.8,79.8,30.13,South,188,7.9,25.7,100,0.01,,SKC,0.01,VWS V14.01,2013-07-16 20:20:00,
2013-07-16 16:24:00,79.9,79.9,30.13,SSE,160,10.1,25.7,100,0.01,,SKC,0.01,VWS V14.01,2013-07-16 20:24:00,
2013-07-16 16:25:00,79.9,79.9,30.13,South,170,10.3,25.7,100,0.01,,SKC,0.01,VWS V14.01,2013-07-16 20:25:00,
2013-07-16 16:29:00,80.0,80.0,30.13,South,176,5.7,25.7,100,0.01,,SKC,0.01,VWS V14.01,2013-07-16 20:29:00,
2013-07-16 16:30:00,80.1,80.0,30.13,North,359,6.4,25.7,100,0.01,,SKC,0.01,VWS V14.01,2013-07-16 20:30:00,
2013-07-16 16:34:00,80.1,80.1,30.13,SSE,160,14.7,25.7,100,0.01,,SKC,0.01,VWS V14.01,2013-07-16 20:34:00,
2013-07-16 16:35:00,80.1,80.1,30.13,South,191,7.0,25.7,100,0.01,,SKC,0.01,VWS V14.01,2013-07-16 20:35:00,
2013-07-16 16:39:00,80.2,80.2,30.13,North,359,8.0,25.7,100,0.01,,SKC,0.01,VWS V14.01,2013-07-16 20:39:00,
2013-07-16 16:40:00,80.2,80.2,30.13,SSE,156,6.7,25.7,100,0.01,,SKC,0.01,VWS V14.01,2013-07-16 20:40:00,
2013-07-16 16:44:00,80.2,80.2,30.13,South,169,4.0,25.7,100,0.01,,SKC,0.01,VWS V14.01,2013-07-16 20:44:00,
2013-07-16 16:45:00,80.2,80.2,30.13,North,359,5.7,25.7,100,0.01,,SKC,0.01,VWS V14.01,2013-07-16 20:45:00,
2013-07-16 16:46:00,80.2,80.2,30.13,North,359,5.0,25.7,100,0.01,,SKC,0.01,VWS V14.01,2013-07-16 20:46:00,
2013-07-16 16:50:00,80.3,80.3,30.12,SSW,193,2.2,25.7,100,0.01,,SKC,0.01,VWS V14.01,2013-07-16 20:50:00,
2013-07-16 16:51:00,80.3,80.4,30.12,South,187,12.5,25.7,100,0.01,,SKC,0.01,VWS V14.01,2013-07-16 20:51:00,
2013-07-16 16:55:00,80.4,80.4,30.13,SSW,205,1.3,25.7,100,0.01,,SKC,0.01,VWS V14.01,2013-07-16 20:55:00,
2013-07-16 16:56:00,80.4,80.4,30.13,SSW,200,4.7,25.7,100,0.01,,SKC,0.01,VWS V14.01,2013-07-16 20:56:00,
2013-07-16 17:00:00,80.5,80.5,30.13,South,190,16.6,25.7,100,0.01,,SKC,0.01,VWS V14.01,2013-07-16 21:00:00,
2013-07-16 17:01:00,80.5,80.5,30.13,North,359,15.8,25.7,100,0.01,,SKC,0.01,VWS V14.01,2013-07-16 21:01:00,
2013-07-16 17:05:00,80.4,80.4,30.13,South,180,0.7,25.7,100,0.01,,SKC,0.01,VWS V14.01,2013-07-16 21:05:00,
2013-07-16 17:06:00,80.4,80.4,30.13,SSE,163,17.3,25.7,100,0.01,,SKC,0.01,VWS V14.01,2013-07-16 21:06:00,
2013-07-16 17:10:00,80.4,80.4,30.13,North,359,6.1,25.7,100,0.01,,SKC,0.01,VWS V14.01,2013-07-16 21:10:00,
2013-07-16 17:11:00,80.4,80.4,30.13,North,359,5.3,25.7,100,0.01,,SKC,0.01,VWS V14.01,2013-07-16 21:11:00,
2013-07-16 17:12:00,80.4,80.4,30.13,South,176,14.5,25.7,100,0.01,,SKC,0.01,VWS V14.01,2013-07-16 21:12:00,
2013-07-16 17:15:00,80.3,80.3,30.13,North,359,7.8,25.7,100,0.01,,SKC,0.01,VWS V14.01,2013-07-16 21:15:00,
2013-07-16 17:17:00,80.4,80.4,30.13,SSE,167,7.6,25.7,100,0.01,,SKC,0.01,VWS V14.01,2013-07-16 21:17:00,
2013-07-16 17:20:00,80.4,80.3,30.13,North,359,0.0,25.7,100,0.01,,SKC,0.01,VWS V14.01,2013-07-16 21:20:00,
2013-07-16 17:22:00,80.1,80.1,30.13,South,176,18.3,25.7,100,0.01,,SKC,0.01,VWS V14.01,2013-07-16 21:22:00,
2013-07-16 17:23:00,79.9,79.9,30.13,SE,139,21.3,25.7,100,0.01,,SKC,0.01,VWS V14.01,2013-07-16 21:23:00,
2013-07-16 17:25:00,79.3,79.3,30.13,South,176,9.6,25.7,100,0.01,,SKC,0.01,VWS V14.01,2013-07-16 21:25:00,
2013-07-16 17:27:00,78.9,78.9,30.13,South,176,3.0,25.7,100,0.01,,SKC,0.01,VWS V14.01,2013-07-16 21:27:00,
2013-07-16 17:28:00,78.8,78.8,30.13,SSW,197,11.5,25.7,100,0.01,,SKC,0.01,VWS V14.01,2013-07-16 21:28:00,
2013-07-16 17:30:00,78.7,78.7,30.13,South,170,7.1,25.7,100,0.01,,SKC,0.01,VWS V14.01,2013-07-16 21:30:00,
2013-07-16 17:31:00,78.7,78.7,30.13,North,359,9.1,25.7,100,0.01,,SKC,0.01,VWS V14.01,2013-07-16 21:31:00,
2013-07-16 17:32:00,78.5,78.5,30.13,SSE,165,4.2,25.7,100,0.01,,SKC,0.01,VWS V14.01,2013-07-16 21:32:00,
2013-07-16 17:33:00,78.7,78.7,30.13,SE,145,0.0,25.7,100,0.01,,SKC,0.01,VWS V14.01,2013-07-16 21:33:00,
2013-07-16 17:35:00,78.8,78.8,30.13,North,359,1.9,25.7,100,0.01,,SKC,0.01,VWS V14.01,2013-07-16 21:35:00,
2013-07-16 17:36:00,78.7,78.7,30.13,SSW,195,5.1,25.7,100,0.01,,SKC,0.01,VWS V14.01,2013-07-16 21:36:00,
2013-07-16 17:37:00,78.7,78.7,30.13,SE,142,9.1,25.7,100,0.01,,SKC,0.01,VWS V14.01,2013-07-16 21:37:00,
2013-07-16 17:38:00,78.7,78.7,30.13,North,359,4.1,25.7,100,0.01,,SKC,0.01,VWS V14.01,2013-07-16 21:38:00,
2013-07-16 17:41:00,78.7,78.7,30.13,SSE,165,0.0,25.7,100,0.01,,SKC,0.01,VWS V14.01,2013-07-16 21:41:00,
2013-07-16 17:42:00,78.7,78.7,30.13,South,180,8.8,25.7,100,0.01,,SKC,0.01,VWS V14.01,2013-07-16 21:42:00,
2013-07-16 17:43:00,78.7,78.7,30.13,South,186,7.7,25.7,100,0.01,,SKC,0.01,VWS V14.01,2013-07-16 21:43:00,
2013-07-16 17:46:00,78.8,78.8,30.13,South,174,0.2,25.7,100,0.01,,SKC,0.01,VWS V14.01,2013-07-16 21:46:00,
2013-07-16 17:48:00,78.7,78.7,30.13,South,180,10.0,25.7,100,0.01,,SKC,0.01,VWS V14.01,2013-07-16 21:48:00,
2013-07-16 17:51:00,78.8,78.8,30.13,North,359,1.9,25.7,100,0.01,,SKC,0.01,VWS V14.01,2013-07-16 21:51:00,
2013-07-16 17:53:00,78.9,78.9,30.13,South,190,5.8,25.7,100,0.01,,SKC,0.01,VWS V14.01,2013-07-16 21:53:00,
2013-07-16 17:56:00,79.1,79.1,30.13,SW,215,3.7,25.7,100,0.01,,SKC,0.01,VWS V14.01,2013-07-16 21:56:00,
2013-07-16 17:57:00,79.2,79.2,30.13,South,176,6.9,25.7,100,0.01,,SKC,0.01,VWS V14.01,2013-07-16 21:57:00,
2013-07-16 17:58:00,79.2,79.2,30.13,SSE,162,6.1,25.7,100,0.01,,SKC,0.01,VWS V14.01,2013-07-16 21:58:00,
2013-07-16 18:01:00,79.5,79.5,30.13,North,359,1.4,25.7,100,0.01,,SKC,0.01,VWS V14.01,2013-07-16 22:01:00,
2013-07-16 18:02:00,79.7,79.7,30.13,SSE,162,11.9,25.7,100,0.01,,SKC,0.01,VWS V14.01,2013-07-16 22:02:00,
2013-07-16 18:03:00,79.7,79.7,30.13,SSW,205,7.9,25.7,100,0.01,,SKC,0.01,VWS V14.01,2013-07-16 22:03:00,
2013-07-16 18:06:00,79.9,79.9,30.12,SSE,156,11.2,25.7,100,0.01,,SKC,0.01,VWS V14.01,2013-07-16 22:06:00,
2013-07-16 18:07:00,80.0,80.0,30.13,South,174,8.0,25.7,100,0.01,,SKC,0.01,VWS V14.01,2013-07-16 22:07:00,
2013-07-16 18:08:00,80.1,80.1,30.12,SE,146,9.6,25.7,100,0.01,,SKC,0.01,VWS V14.01,2013-07-16 22:08:00,
2013-07-16 18:11:00,80.3,80.3,30.13,SE,145,7.6,25.7,100,0.01,,SKC,0.01,VWS V14.01,2013-07-16 22:11:00,
2013-07-16 18:13:00,80.4,80.4,30.13,South,172,0.2,25.7,100,0.01,,SKC,0.01,VWS V14.01,2013-07-16 22:13:00,
2013-07-16 18:16:00,80.5,80.5,30.12,SSW,197,8.8,25.7,100,0.01,,SKC,0.01,VWS V14.01,2013-07-16 22:16:00,
2013-07-16 18:18:00,80.3,80.3,30.12,SSW,194,7.5,25.7,100,0.01,,SKC,0.01,VWS V14.01,2013-07-16 22:18:00,
2013-07-16 18:21:00,80.5,80.5,30.13,North,359,2.5,25.7,100,0.01,,SKC,0.01,VWS V14.01,2013-07-16 22:21:00,
2013-07-16 18:23:00,80.4,80.4,30.13,North,359,0.7,25.7,100,0.01,,SKC,0.01,VWS V14.01,2013-07-16 22:23:00,
2013-07-16 18:26:00,80.5,80.5,30.13,SSW,200,3.2,25.7,100,0.01,,SKC,0.01,VWS V14.01,2013-07-16 22:26:00,
2013-07-16 18:27:00,80.5,80.5,30.13,South,188,9.0,25.7,100,0.01,,SKC,0.01,VWS V14.01,2013-07-16 22:27:00,
2013-07-16 18:28:00,80.5,80.5,30.13,South,172,5.5,25.7,100,0.01,,SKC,0.01,VWS V14.01,2013-07-16 22:28:00,
2013-07-16 18:32:00,80.5,80.5,30.13,South,169,5.0,25.7,100,0.01,,SKC,0.01,VWS V14.01,2013-07-16 22:32:00,
2013-07-16 18:33:00,80.4,80.4,30.13,South,169,7.9,25.7,100,0.01,,SKC,0.01,VWS V14.01,2013-07-16 22:33:00,
2013-07-16 18:37:00,80.2,80.2,30.13,North,359,7.8,25.7,100,0.01,,SKC,0.01,VWS V14.01,2013-07-16 22:37:00,
2013-07-16 18:38:00,80.2,80.2,30.13,North,359,2.0,25.7,100,0.01,,SKC,0.01,VWS V14.01,2013-07-16 22:38:00,
2013-07-16 18:42:00,80.3,80.3,30.13,SSW,202,6.0,25.7,100,0.01,,SKC,0.01,VWS V14.01,2013-07-16 22:42:00,
2013-07-16 18:43:00,80.3,80.3,30.13,SSE,152,6.7,25.7,100,0.01,,SKC,0.01,VWS V14.01,2013-07-16 22:43:00,
2013-07-16 18:44:00,80.3,80.3,30.12,North,359,4.6,25.7,100,0.01,,SKC,0.01,VWS V14.01,2013-07-16 22:44:00,
2013-07-16 18:47:00,80.3,80.3,30.12,North,359,9.1,25.7,100,0.01,,SKC,0.01,VWS V14.01,2013-07-16 22:47:00,
2013-07-16 18:48:00,80.5,80.5,30.12,South,176,5.8,25.7,100,0.01,,SKC,0.01,VWS V14.01,2013-07-16 22:48:00,
2013-07-16 18:49:00,80.3,80.3,30.12,SSW,205,4.4,25.7,100,0.01,,SKC,0.01,VWS V14.01,2013-07-16 22:49:00,
2013-07-16 18:52:00,80.3,80.3,30.12,South,173,7.3,25.7,100,0.01,,SKC,0.01,VWS V14.01,2013-07-16 22:52:00,
2013-07-16 18:53:00,80.4,80.4,30.12,North,359,3.4,25.7,100,0.01,,SKC,0.01,VWS V14.01,2013-07-16 22:53:00,
2013-07-16 18:54:00,80.5,80.5,30.12,SSW,211,6.8,25.7,100,0.01,,SKC,0.01,VWS V14.01,2013-07-16 22:54:00,
2013-07-16 18:57:00,80.5,80.5,30.12,South,190,9.7,25.7,100,0.01,,SKC,0.01,VWS V14.01,2013-07-16 22:57:00,
2013-07-16 18:59:00,80.5,80.6,30.13,SSE,162,10.9,25.7,100,0.01,,SKC,0.01,VWS V14.01,2013-07-16 22:59:00,
2013-07-16 19:02:00,80.7,80.7,30.12,SSW,200,0.6,25.7,100,0.01,,SKC,0.01,VWS V14.01,2013-07-16 23:02:00,
2013-07-16 19:04:00,80.7,80.7,30.12,SSW,195,7.5,25.7,100,0.01,,SKC,0.01,VWS V14.01,2013-07-16 23:04:00,
2013-07-16 19:07:00,80.8,80.8,30.12,South,181,9.9,25.7,100,0.01,,SKC,0.01,VWS V14.01,2013-07-16 23:07:00,
2013-07-16 19:09:00,80.8,80.8,30.12,North,359,0.7,25.7,100,0.01,,SKC,0.01,VWS V14.01,2013-07-16 23:09:00,
2013-07-16 19:13:00,80.8,80.8,30.12,SSW,204,7.9,25.7,100,0.01,,SKC,0.01,VWS V14.01,2013-07-16 23:13:00,
2013-07-16 19:14:00,80.6,80.6,30.11,SSW,201,0.2,25.7,100,0.01,,SKC,0.01,VWS V14.01,2013-07-16 23:14:00,
2013-07-16 19:18:00,80.7,80.6,30.12,North,359,11.7,25.7,100,0.01,,SKC,0.01,VWS V14.01,2013-07-16 23:18:00,
2013-07-16 19:19:00,80.6,80.6,30.12,South,179,8.8,25.7,100,0.01,,SKC,0.01,VWS V14.01,2013-07-16 23:19:00,
2013-07-16 19:20:00,80.6,80.6,30.12,South,176,10.6,25.7,100,0.01,,SKC,0.01,VWS V14.01,2013-07-16 23:20:00,
2013-07-16 19:23:00,80.6,80.6,30.11,North,359,14.0,25.7,100,0.01,,SKC,0.01,VWS V14.01,2013-07-16 23:23:00,
2013-07-16 19:24:00,80.6,80.6,30.12,SSW,202,8.6,25.7,100,0.01,,SKC,0.01,VWS V14.01,2013-07-16 23:24:00,
2013-07-16 19:25:00,80.6,80.6,30.12,North,359,0.7,25.7,100,0.01,,SKC,0.01,VWS V14.01,2013-07-16 23:25:00,
2013-07-16 19:28:00,80.7,80.7,30.12,North,359,0.5,25.7,100,0.01,,SKC,0.01,VWS V14.01,2013-07-16 23:28:00,
2013-07-16 19:29:00,80.8,80.8,30.11,SSE,153,9.8,25.7,100,0.01,,SKC,0.01,VWS V14.01,2013-07-16 23:29:00,
2013-07-16 19:30:00,80.7,80.7,30.11,SE,141,10.7,25.7,100,0.01,,SKC,0.01,VWS V14.01,2013-07-16 23:30:00,
2013-07-16 19:33:00,80.7,80.7,30.13,South,184,11.2,25.7,100,0.01,,SKC,0.01,VWS V14.01,2013-07-16 23:33:00,
2013-07-16 19:34:00,80.7,80.6,30.13,South,190,5.3,25.7,100,0.01,,SKC,0.01,VWS V14.01,2013-07-16 23:34:00,
2013-07-16 19:35:00,80.7,80.7,30.13,South,174,9.6,25.7,100,0.01,,SKC,0.01,VWS V14.01,2013-07-16 23:35:00,
2013-07-16 19:38:00,80.7,80.7,30.13,North,359,8.1,25.7,100,0.01,,SKC,0.01,VWS V14.01,2013-07-16 23:38:00,
2013-07-16 19:39:00,80.6,80.6,30.13,North,359,1.0,25.7,100,0.01,,SKC,0.01,VWS V14.01,2013-07-16 23:39:00,
2013-07-16 19:40:00,80.8,80.8,30.12,SSW,207,5.4,25.7,100,0.01,,SKC,0.01,VWS V14.01,2013-07-16 23:40:00,
2013-07-16 19:43:00,80.8,80.9,30.13,South,183,0.3,25.7,100,0.01,,SKC,0.01,VWS V14.01,2013-07-16 23:43:00,
2013-07-16 19:45:00,80.9,80.9,30.13,North,359,0.7,25.7,100,0.01,,SKC,0.01,VWS V14.01,2013-07-16 23:45:00,
2013-07-16 19:48:00,80.7,80.7,30.13,North,359,2.5,25.7,100,0.01,,SKC,0.01,VWS V14.01,2013-07-16 23:48:00,
2013-07-16 19:50:00,80.8,80.8,30.13,SSW,194,1.3,25.7,100,0.01,,SKC,0.01,VWS V14.01,2013-07-16 23:50:00,
2013-07-16 19:51:00,80.9,80.9,30.13,North,359,0.6,25.7,100,0.01,,SKC,0.01,VWS V14.01,2013-07-16 23:51:00,
2013-07-16 19:54:00,80.8,80.8,30.13,South,170,8.5,25.7,100,0.01,,SKC,0.01,VWS V14.01,2013-07-16 23:54:00,
2013-07-16 19:55:00,80.8,80.8,30.13,SSE,159,5.0,25.7,100,0.01,,SKC,0.01,VWS V14.01,2013-07-16 23:55:00,
2013-07-16 19:56:00,80.7,80.7,30.13,North,359,1.1,25.7,100,0.01,,SKC,0.01,VWS V14.01,2013-07-16 23:56:00,
2013-07-16 19:59:00,80.7,80.7,30.13,North,359,8.1,25.7,100,0.01,,SKC,0.01,VWS V14.01,2013-07-16 23:59:00,
2013-07-16 20:00:00,80.8,80.8,30.13,South,183,6.1,25.7,100,0.01,,SKC,0.01,VWS V14.01,2013-07-17 00:00:00,
2013-07-16 20:01:00,80.8,80.8,30.13,South,170,1.1,25.7,100,0.01,,SKC,0.01,VWS V14.01,2013-07-17 00:01:00,
2013-07-16 20:04:00,80.7,80.7,30.13,SSE,149,16.3,25.7,100,0.01,,SKC,0.01,VWS V14.01,2013-07-17 00:04:00,
2013-07-16 20:05:00,80.8,80.8,30.13,South,172,1.6,25.7,100,0.01,,SKC,0.01,VWS V14.01,2013-07-17 00:05:00,
2013-07-16 20:06:00,80.8,80.8,30.13,SE,145,15.0,25.7,100,0.01,,SKC,0.01,VWS V14.01,2013-07-17 00:06:00,
2013-07-16 20:09:00,81.0,81.0,30.13,SSW,194,2.3,25.7,100,0.01,,SKC,0.01,VWS V14.01,2013-07-17 00:09:00,
2013-07-16 20:10:00,80.9,80.9,30.13,North,359,0.2,25.7,100,0.01,,SKC,0.01,VWS V14.01,2013-07-17 00:10:00,
2013-07-16 20:11:00,80.9,80.8,30.13,North,359,7.8,25.7,100,0.01,,SKC,0.01,VWS V14.01,2013-07-17 00:11:00,
2013-07-16 20:14:00,80.8,80.7,30.13,North,359,0.6,25.7,100,0.01,,SKC,0.01,VWS V14.01,2013-07-17 00:14:00,
2013-07-16 20:15:00,80.7,80.7,30.14,North,359,1.4,25.7,100,0.01,,SKC,0.01,VWS V14.01,2013-07-17 00:15:00,
2013-07-16 20:16:00,80.7,80.7,30.14,North,359,0.6,25.7,100,0.01,,SKC,0.01,VWS V14.01,2013-07-17 00:16:00,
2013-07-16 20:19:00,80.8,80.8,30.13,North,359,1.0,25.7,100,0.01,,SKC,0.01,VWS V14.01,2013-07-17 00:19:00,
2013-07-16 20:20:00,80.8,80.8,30.14,South,181,9.4,25.7,100,0.01,,SKC,0.01,VWS V14.01,2013-07-17 00:20:00,
2013-07-16 20:21:00,80.8,80.8,30.14,South,187,3.4,25.7,100,0.01,,SKC,0.01,VWS V14.01,2013-07-17 00:21:00,
2013-07-16 20:24:00,80.9,80.9,30.14,SSE,167,11.1,25.7,100,0.01,,SKC,0.01,VWS V14.01,2013-07-17 00:24:00,
2013-07-16 20:25:00,80.8,80.8,30.14,SSW,201,7.9,25.7,100,0.01,,SKC,0.01,VWS V14.01,2013-07-17 00:25:00,
2013-07-16 20:26:00,80.8,80.8,30.14,South,177,6.5,25.7,100,0.01,,SKC,0.01,VWS V14.01,2013-07-17 00:26:00,
2013-07-16 20:30:00,80.8,80.8,30.15,North,359,0.6,25.7,100,0.01,,SKC,0.01,VWS V14.01,2013-07-17 00:30:00,
2013-07-16 20:31:00,80.9,80.9,30.14,SSW,200,4.5,25.7,100,0.01,,SKC,0.01,VWS V14.01,2013-07-17 00:31:00,
2013-07-16 20:32:00,80.8,80.8,30.14,SSW,210,14.7,25.7,100,0.01,,SKC,0.01,VWS V14.01,2013-07-17 00:32:00,
2013-07-16 20:35:00,80.9,80.9,30.15,South,188,6.4,25.7,100,0.01,,SKC,0.01,VWS V14.01,2013-07-17 00:35:00,
2013-07-16 20:36:00,80.8,80.8,30.14,SSW,195,1.3,25.7,100,0.01,,SKC,0.01,VWS V14.01,2013-07-17 00:36:00,
2013-07-16 20:37:00,80.9,80.9,30.14,South,186,9.6,25.7,100,0.01,,SKC,0.01,VWS V14.01,2013-07-17 00:37:00,
2013-07-16 20:40:00,80.9,80.9,30.14,South,179,12.6,25.7,100,0.01,,SKC,0.01,VWS V14.01,2013-07-17 00:40:00,
2013-07-16 20:41:00,80.9,80.9,30.14,North,359,0.0,25.7,100,0.01,,SKC,0.01,VWS V14.01,2013-07-17 00:41:00,
2013-07-16 20:42:00,80.8,80.8,30.14,North,359,7.7,25.7,100,0.01,,SKC,0.01,VWS V14.01,2013-07-17 00:42:00,
2013-07-16 20:45:00,80.9,80.9,30.15,North,359,0.0,25.7,100,0.01,,SKC,0.01,VWS V14.01,2013-07-17 00:45:00,
2013-07-16 20:46:00,80.9,80.9,30.15,South,181,0.3,25.7,100,0.01,,SKC,0.01,VWS V14.01,2013-07-17 00:46:00,
2013-07-16 20:47:00,80.9,80.9,30.15,South,179,11.1,25.7,100,0.01,,SKC,0.01,VWS V14.01,2013-07-17 00:47:00,
2013-07-16 20:50:00,80.9,80.9,30.14,North,359,2.2,25.7,100,0.01,,SKC,0.01,VWS V14.01,2013-07-17 00:50:00,
2013-07-16 20:51:00,80.9,80.9,30.14,South,176,11.7,25.7,100,0.01,,SKC,0.01,VWS V14.01,2013-07-17 00:51:00,
2013-07-16 20:52:00,80.9,80.9,30.14,South,177,5.3,25.7,100,0.01,,SKC,0.01,VWS V14.01,2013-07-17 00:52:00,
2013-07-16 20:55:00,80.8,80.8,30.15,North,359,1.4,25.7,100,0.01,,SKC,0.01,VWS V14.01,2013-07-17 00:55:00,
2013-07-16 20:56:00,80.8,80.8,30.14,North,359,0.4,25.7,100,0.01,,SKC,0.01,VWS V14.01,2013-07-17 00:56:00,
2013-07-16 20:57:00,80.8,80.8,30.14,SW,218,5.9,25.7,100,0.01,,SKC,0.01,VWS V14.01,2013-07-17 00:57:00,
2013-07-16 21:01:00,80.7,80.7,30.14,North,359,6.7,25.7,100,0.01,,SKC,0.01,VWS V14.01,2013-07-17 01:01:00,
2013-07-16 21:02:00,80.6,80.6,30.14,South,186,7.9,25.7,100,0.01,,SKC,0.01,VWS V14.01,2013-07-17 01:02:00,
2013-07-16 21:06:00,80.6,80.6,30.14,SSW,194,13.4,25.7,100,0.01,,SKC,0.01,VWS V14.01,2013-07-17 01:06:00,
2013-07-16 21:07:00,80.7,80.7,30.14,North,359,9.3,25.7,100,0.01,,SKC,0.01,VWS V14.01,2013-07-17 01:07:00,
2013-07-16 21:11:00,80.5,80.5,30.15,SSW,208,12.6,25.7,100,0.01,,SKC,0.01,VWS V14.01,2013-07-17 01:11:00,
2013-07-16 21:12:00,80.6,80.6,30.14,SSE,148,0.7,25.7,100,0.01,,SKC,0.01,VWS V14.01,2013-07-17 01:12:00,
2013-07-16 21:16:00,80.7,80.7,30.15,North,359,2.1,25.7,100,0.01,,SKC,0.01,VWS V14.01,2013-07-17 01:16:00,
2013-07-16 21:17:00,80.7,80.7,30.15,SSW,201,4.1,25.7,100,0.01,,SKC,0.01,VWS V14.01,2013-07-17 01:17:00,
2013-07-16 21:21:00,80.7,80.7,30.15,North,359,12.1,25.7,100,0.01,,SKC,0.01,VWS V14.01,2013-07-17 01:21:00,
2013-07-16 21:22:00,80.8,80.8,30.15,SW,219,7.1,25.7,100,0.01,,SKC,0.01,VWS V14.01,2013-07-17 01:22:00,
2013-07-16 21:26:00,80.8,80.8,30.15,SSE,160,7.3,25.7,100,0.01,,SKC,0.01,VWS V14.01,2013-07-17 01:26:00,
2013-07-16 21:27:00,80.9,80.9,30.15,SSE,162,12.9,25.7,100,0.01,,SKC,0.01,VWS V14.01,2013-07-17 01:27:00,
2013-07-16 21:28:00,80.8,80.8,30.15,South,188,6.2,25.7,100,0.01,,SKC,0.01,VWS V14.01,2013-07-17 01:28:00,
2013-07-16 21:32:00,80.7,80.7,30.15,SSE,155,6.2,25.7,100,0.01,,SKC,0.01,VWS V14.01,2013-07-17 01:32:00,
2013-07-16 21:34:00,80.8,80.8,30.15,North,359,4.2,25.7,100,0.01,,SKC,0.01,VWS V14.01,2013-07-17 01:34:00,
2013-07-16 21:37:00,80.8,80.8,30.15,South,177,6.8,25.7,100,0.01,,SKC,0.01,VWS V14.01,2013-07-17 01:37:00,
2013-07-16 21:39:00,80.8,80.8,30.15,South,190,2.5,25.7,100,0.01,,SKC,0.01,VWS V14.01,2013-07-17 01:39:00,
2013-07-16 21:42:00,80.8,80.8,30.16,North,359,7.0,25.7,100,0.01,,SKC,0.01,VWS V14.01,2013-07-17 01:42:00,
2013-07-16 21:44:00,80.7,80.8,30.16,North,359,2.2,25.7,100,0.01,,SKC,0.01,VWS V14.01,2013-07-17 01:44:00,
2013-07-16 21:47:00,80.8,80.8,30.16,SSW,212,5.3,25.7,100,0.01,,SKC,0.01,VWS V14.01,2013-07-17 01:47:00,
2013-07-16 21:48:00,80.8,80.8,30.16,North,359,0.4,25.7,100,0.01,,SKC,0.01,VWS V14.01,2013-07-17 01:48:00,
2013-07-16 21:49:00,80.8,80.8,30.16,SSW,197,6.0,25.7,100,0.01,,SKC,0.01,VWS V14.01,2013-07-17 01:49:00,
2013-07-16 21:52:00,80.8,80.8,30.16,North,359,1.9,25.7,100,0.01,,SKC,0.01,VWS V14.01,2013-07-17 01:52:00,
2013-07-16 21:53:00,80.8,80.8,30.16,North,359,0.6,25.7,100,0.01,,SKC,0.01,VWS V14.01,2013-07-17 01:53:00,
2013-07-16 21:54:00,80.8,80.8,30.17,SSW,193,3.4,25.7,100,0.01,,SKC,0.01,VWS V14.01,2013-07-17 01:54:00,
2013-07-16 21:58:00,80.7,80.7,30.17,South,169,4.0,25.7,100,0.01,,SKC,0.01,VWS V14.01,2013-07-17 01:58:00,
2013-07-16 21:59:00,80.8,80.8,30.17,South,174,9.0,25.7,100,0.01,,SKC,0.01,VWS V14.01,2013-07-17 01:59:00,
2013-07-16 22:02:00,80.8,80.8,30.17,SSW,200,6.9,25.7,100,0.01,,SKC,0.01,VWS V14.01,2013-07-17 02:02:00,
2013-07-16 22:03:00,80.8,80.8,30.17,South,187,8.5,25.7,100,0.01,,SKC,0.01,VWS V14.01,2013-07-17 02:03:00,
2013-07-16 22:04:00,80.9,80.9,30.17,SSW,195,8.3,25.7,100,0.01,,SKC,0.01,VWS V14.01,2013-07-17 02:04:00,
2013-07-16 22:08:00,80.8,80.8,30.17,North,359,1.9,25.7,100,0.01,,SKC,0.01,VWS V14.01,2013-07-17 02:08:00,
2013-07-16 22:09:00,80.7,80.7,30.17,South,177,11.4,25.7,100,0.01,,SKC,0.01,VWS V14.01,2013-07-17 02:09:00,
2013-07-16 22:13:00,80.8,80.8,30.18,North,359,0.2,25.7,100,0.01,,SKC,0.01,VWS V14.01,2013-07-17 02:13:00,
2013-07-16 22:14:00,80.8,80.8,30.18,SSW,200,6.4,25.7,100,0.01,,SKC,0.01,VWS V14.01,2013-07-17 02:14:00,
2013-07-16 22:15:00,80.8,80.8,30.18,SSW,200,5.3,25.7,100,0.01,,SKC,0.01,VWS V14.01,2013-07-17 02:15:00,
2013-07-16 22:18:00,80.9,80.9,30.17,SSW,201,1.3,25.7,100,0.01,,SKC,0.01,VWS V14.01,2013-07-17 02:18:00,
2013-07-16 22:19:00,80.8,80.8,30.17,South,183,8.1,25.7,100,0.01,,SKC,0.01,VWS V14.01,2013-07-17 02:19:00,
2013-07-16 22:20:00,80.8,80.8,30.17,North,359,0.4,25.7,100,0.01,,SKC,0.01,VWS V14.01,2013-07-17 02:20:00,
2013-07-16 22:23:00,80.8,80.8,30.17,North,359,8.8,25.7,100,0.01,,SKC,0.01,VWS V14.01,2013-07-17 02:23:00,
2013-07-16 22:24:00,80.8,80.8,30.18,SSE,166,8.2,25.7,100,0.01,,SKC,0.01,VWS V14.01,2013-07-17 02:24:00,
2013-07-16 22:25:00,80.8,80.8,30.17,North,359,2.3,25.7,100,0.01,,SKC,0.01,VWS V14.01,2013-07-17 02:25:00,
2013-07-16 22:28:00,80.8,80.8,30.17,SSE,166,6.6,25.7,100,0.01,,SKC,0.01,VWS V14.01,2013-07-17 02:28:00,
2013-07-16 22:29:00,80.9,80.9,30.17,North,359,11.7,25.7,100,0.01,,SKC,0.01,VWS V14.01,2013-07-17 02:29:00,
2013-07-16 22:30:00,80.7,80.7,30.17,South,188,2.4,25.7,100,0.01,,SKC,0.01,VWS V14.01,2013-07-17 02:30:00,
2013-07-16 22:33:00,80.8,80.8,30.17,SSW,205,7.1,25.7,100,0.01,,SKC,0.01,VWS V14.01,2013-07-17 02:33:00,
2013-07-16 22:34:00,80.8,80.8,30.17,SSE,166,8.4,25.7,100,0.01,,SKC,0.01,VWS V14.01,2013-07-17 02:34:00,
2013-07-16 22:35:00,80.8,80.8,30.17,South,181,5.0,25.7,100,0.01,,SKC,0.01,VWS V14.01,2013-07-17 02:35:00,
2013-07-16 22:38:00,80.7,80.7,30.17,SE,146,4.5,25.7,100,0.01,,SKC,0.01,VWS V14.01,2013-07-17 02:38:00,
2013-07-16 22:39:00,80.6,80.6,30.17,SSE,166,5.3,25.7,100,0.01,,SKC,0.01,VWS V14.01,2013-07-17 02:39:00,
2013-07-16 22:40:00,80.8,80.8,30.17,South,169,5.7,25.7,100,0.01,,SKC,0.01,VWS V14.01,2013-07-17 02:40:00,
2013-07-16 22:44:00,80.8,80.8,30.17,South,170,6.6,25.7,100,0.01,,SKC,0.01,VWS V14.01,2013-07-17 02:44:00,
2013-07-16 22:46:00,80.8,80.8,30.18,South,188,6.1,25.7,100,0.01,,SKC,0.01,VWS V14.01,2013-07-17 02:46:00,
2013-07-16 22:49:00,80.8,80.8,30.18,South,186,6.0,25.7,100,0.01,,SKC,0.01,VWS V14.01,2013-07-17 02:49:00,
2013-07-16 22:50:00,80.9,80.9,30.18,SSW,210,2.5,25.7,100,0.01,,SKC,0.01,VWS V14.01,2013-07-17 02:50:00,
2013-07-16 22:51:00,80.8,80.8,30.18,SSE,156,4.0,25.7,100,0.01,,SKC,0.01,VWS V14.01,2013-07-17 02:51:00,
2013-07-16 22:54:00,80.9,80.9,30.18,SSE,167,8.6,25.7,100,0.01,,SKC,0.01,VWS V14.01,2013-07-17 02:54:00,
2013-07-16 22:55:00,80.8,80.8,30.18,SSE,167,0.0,25.7,100,0.01,,SKC,0.01,VWS V14.01,2013-07-17 02:55:00,
2013-07-16 22:56:00,80.8,80.8,30.18,North,359,0.0,25.7,100,0.01,,SKC,0.01,VWS V14.01,2013-07-17 02:56:00,
2013-07-16 22:59:00,80.9,80.9,30.18,SSE,163,5.7,25.7,100,0.01,,SKC,0.01,VWS V14.01,2013-07-17 02:59:00,
2013-07-16 23:00:00,80.8,80.8,30.18,South,184,7.5,25.7,100,0.01,,SKC,0.01,VWS V14.01,2013-07-17 03:00:00,
2013-07-16 23:01:00,80.9,80.9,30.18,South,172,2.2,25.7,100,0.01,,SKC,0.01,VWS V14.01,2013-07-17 03:01:00,
2013-07-16 23:04:00,80.8,80.8,30.18,South,181,9.4,25.7,100,0.01,,SKC,0.01,VWS V14.01,2013-07-17 03:04:00,
2013-07-16 23:05:00,80.8,80.8,30.18,SSE,159,1.4,25.7,100,0.01,,SKC,0.01,VWS V14.01,2013-07-17 03:05:00,
2013-07-16 23:06:00,80.8,80.8,30.18,North,359,0.0,25.7,100,0.01,,SKC,0.01,VWS V14.01,2013-07-17 03:06:00,
2013-07-16 23:07:00,80.5,80.5,30.18,SE,143,9.6,25.7,100,0.01,,SKC,0.01,VWS V14.01,2013-07-17 03:07:00,
2013-07-16 23:08:00,80.5,80.5,30.18,South,173,4.8,25.7,100,0.01,,SKC,0.01,VWS V14.01,2013-07-17 03:08:00,
2013-07-16 23:09:00,80.7,80.7,30.18,North,359,0.0,25.7,100,0.01,,SKC,0.01,VWS V14.01,2013-07-17 03:09:00,
2013-07-16 23:10:00,80.8,80.8,30.17,South,183,8.6,25.7,100,0.01,,SKC,0.01,VWS V14.01,2013-07-17 03:10:00,
2013-07-16 23:11:00,80.7,80.7,30.18,South,169,11.0,25.7,100,0.01,,SKC,0.01,VWS V14.01,2013-07-17 03:11:00,
2013-07-16 23:14:00,80.8,80.8,30.18,South,176,9.1,25.7,100,0.01,,SKC,0.01,VWS V14.01,2013-07-17 03:14:00,
2013-07-16 23:15:00,80.7,80.7,30.18,South,187,6.1,25.7,100,0.01,,SKC,0.01,VWS V14.01,2013-07-17 03:15:00,
2013-07-16 23:16:00,80.7,80.7,30.18,South,173,9.3,25.7,100,0.01,,SKC,0.01,VWS V14.01,2013-07-17 03:16:00,
2013-07-16 23:19:00,80.8,80.8,30.18,SSW,210,6.0,25.7,100,0.01,,SKC,0.01,VWS V14.01,2013-07-17 03:19:00,
2013-07-16 23:20:00,80.7,80.7,30.18,South,183,5.1,25.7,100,0.01,,SKC,0.01,VWS V14.01,2013-07-17 03:20:00,
2013-07-16 23:21:00,80.7,80.7,30.18,South,173,5.8,25.7,100,0.01,,SKC,0.01,VWS V14.01,2013-07-17 03:21:00,
2013-07-16 23:24:00,80.7,80.7,30.18,North,359,1.2,25.7,100,0.01,,SKC,0.01,VWS V14.01,2013-07-17 03:24:00,
2013-07-16 23:25:00,80.7,80.7,30.18,North,359,0.3,25.7,100,0.01,,SKC,0.01,VWS V14.01,2013-07-17 03:25:00,
2013-07-16 23:26:00,80.8,80.8,30.18,SSW,194,1.9,25.7,100,0.01,,SKC,0.01,VWS V14.01,2013-07-17 03:26:00,
2013-07-16 23:30:00,80.7,80.7,30.18,North,359,0.4,25.7,100,0.01,,SKC,0.01,VWS V14.01,2013-07-17 03:30:00,
2013-07-16 23:31:00,80.6,80.6,30.18,North,359,4.4,25.7,100,0.01,,SKC,0.01,VWS V14.01,2013-07-17 03:31:00,
2013-07-16 23:35:00,80.6,80.6,30.18,North,359,0.0,25.7,100,0.01,,SKC,0.01,VWS V14.01,2013-07-17 03:35:00,
2013-07-16 23:36:00,80.6,80.6,30.18,North,359,0.0,25.7,100,0.01,,SKC,0.01,VWS V14.01,2013-07-17 03:36:00,
2013-07-16 23:37:00,80.6,80.6,30.18,SSW,194,5.2,25.7,100,0.01,,SKC,0.01,VWS V14.01,2013-07-17 03:37:00,
2013-07-16 23:40:00,80.7,80.7,30.18,North,359,0.3,25.7,100,0.01,,SKC,0.01,VWS V14.01,2013-07-17 03:40:00,
2013-07-16 23:41:00,80.7,80.7,30.18,North,359,8.7,25.7,100,0.01,,SKC,0.01,VWS V14.01,2013-07-17 03:41:00,
2013-07-16 23:42:00,80.6,80.6,30.18,North,359,9.5,25.7,100,0.01,,SKC,0.01,VWS V14.01,2013-07-17 03:42:00,
2013-07-16 23:45:00,80.5,80.5,30.18,North,359,0.0,25.7,100,0.01,,SKC,0.01,VWS V14.01,2013-07-17 03:45:00,
2013-07-16 23:46:00,80.4,80.4,30.18,North,359,1.1,25.7,100,0.01,,SKC,0.01,VWS V14.01,2013-07-17 03:46:00,
2013-07-16 23:48:00,80.4,80.4,30.18,SSW,208,5.0,25.7,100,0.01,,SKC,0.01,VWS V14.01,2013-07-17 03:48:00,
2013-07-16 23:50:00,80.4,80.4,30.18,North,359,0.9,25.7,100,0.01,,SKC,0.01,VWS V14.01,2013-07-17 03:50:00,
2013-07-16 23:51:00,80.3,80.3,30.18,South,188,7.6,25.7,100,0.01,,SKC,0.01,VWS V14.01,2013-07-17 03:51:00,
2013-07-16 23:53:00,80.4,80.4,30.18,SSW,195,8.9,25.7,100,0.01,,SKC,0.01,VWS V14.01,2013-07-17 03:53:00,
2013-07-16 23:55:00,80.4,80.4,30.18,South,190,7.7,25.7,100,0.01,,SKC,0.01,VWS V14.01,2013-07-17 03:55:00,
2013-07-16 23:56:00,80.3,80.3,30.18,SSE,165,7.5,25.7,100,0.01,,SKC,0.01,VWS V14.01,2013-07-17 03:56:00,
2013-07-16 23:58:00,80.5,80.5,30.18,South,191,6.8,25.7,100,0.01,,SKC,0.01,VWS V14.01,2013-07-17 03:58:00,
2013-07-16 23:59:00,80.3,80.3,30.19,South,179,5.8,25.7,100,0.01,,SKC,0.01,VWS V14.01,2013-07-17 03:59:00,